Time,TemperatureF,DewpointF,PressureIn,WindDirection,WindDirectionDegrees,WindSpeedMPH,WindSpeedGustMPH,Humidity,HourlyPrecipIn,Conditions,Clouds,dailyrainin,SolarRadiationWatts/m^2,SoftwareType,DateUTC
2013-01-21 00:01:00,55.8,17.5,30.06,NNW,347,5.0,0.0,22,0.00,,,0.00,0,WeatherHawk,2013-01-21 07:01:00,
2013-01-21 00:02:00,55.8,17.5,30.06,North,358,6.0,0.0,22,0.00,,,0.00,0,WeatherHawk,2013-01-21 07:02:00,
2013-01-21 00:05:00,55.2,17.1,30.06,NNW,345,5.0,0.0,22,0.00,,,0.00,0,WeatherHawk,2013-01-21 07:05:00,
2013-01-21 00:07:00,55.0,16.9,30.06,NNW,348,4.0,6.0,22,0.00,,,0.00,0,WeatherHawk,2013-01-21 07:07:00,
2013-01-21 00:12:00,54.7,17.6,30.06,NNW,327,4.0,-999.0,23,0.00,,,0.00,0,WeatherHawk,2013-01-21 07:12:00,
2013-01-21 00:13:00,54.5,16.4,30.06,NNW,348,5.0,6.0,22,0.00,,,0.00,0,WeatherHawk,2013-01-21 07:13:00,
2013-01-21 00:17:00,54.7,16.6,30.06,NNW,340,4.0,6.0,22,0.00,,,0.00,0,WeatherHawk,2013-01-21 07:17:00,
2013-01-21 00:19:00,54.9,17.8,30.06,NNW,341,5.0,5.0,23,0.00,,,0.00,0,WeatherHawk,2013-01-21 07:19:00,
2013-01-21 00:20:00,54.9,17.8,30.06,NNW,332,4.0,5.0,23,0.00,,,0.00,0,WeatherHawk,2013-01-21 07:20:00,
2013-01-21 00:22:00,55.0,16.9,30.06,North,358,5.0,5.0,22,0.00,,,0.00,0,WeatherHawk,2013-01-21 07:22:00,
2013-01-21 00:24:00,55.4,17.2,30.06,North,0,4.0,5.0,22,0.00,,,0.00,0,WeatherHawk,2013-01-21 07:24:00,
2013-01-21 00:27:00,55.9,16.6,30.06,North,351,5.0,5.0,21,0.00,,,0.00,0,WeatherHawk,2013-01-21 07:27:00,
2013-01-21 00:32:00,57.6,16.8,30.06,North,355,6.0,0.0,20,0.00,,,0.00,0,WeatherHawk,2013-01-21 07:32:00,
2013-01-21 00:37:00,57.9,15.9,30.06,North,349,7.0,0.0,19,0.00,,,0.00,0,WeatherHawk,2013-01-21 07:37:00,
2013-01-21 00:43:00,58.5,16.4,30.06,North,356,6.0,0.0,19,0.00,,,0.00,0,WeatherHawk,2013-01-21 07:43:00,
2013-01-21 00:44:00,58.1,16.1,30.06,North,356,7.0,0.0,19,0.00,,,0.00,0,WeatherHawk,2013-01-21 07:44:00,
2013-01-21 00:45:00,58.1,16.1,30.06,North,354,7.0,0.0,19,0.00,,,0.00,1,WeatherHawk,2013-01-21 07:45:00,
2013-01-21 00:47:00,58.3,16.2,30.05,North,358,6.0,0.0,19,0.00,,,0.00,0,WeatherHawk,2013-01-21 07:47:00,
2013-01-21 00:51:00,58.6,15.3,30.05,North,357,5.0,8.0,18,0.00,,,0.00,0,WeatherHawk,2013-01-21 07:51:00,
2013-01-21 00:52:00,58.6,15.3,30.05,North,357,5.0,8.0,18,0.00,,,0.00,0,WeatherHawk,2013-01-21 07:52:00,
2013-01-21 00:53:00,58.3,15.0,30.05,North,357,7.0,8.0,18,0.00,,,0.00,0,WeatherHawk,2013-01-21 07:53:00,
2013-01-21 00:56:00,58.5,15.1,30.05,North,359,6.0,8.0,18,0.00,,,0.00,0,WeatherHawk,2013-01-21 07:56:00,
2013-01-21 00:57:00,58.6,15.3,30.05,North,5,8.0,8.0,18,0.00,,,0.00,1,WeatherHawk,2013-01-21 07:57:00,
2013-01-21 00:58:00,58.8,14.1,30.06,North,2,8.0,8.0,17,0.00,,,0.00,0,WeatherHawk,2013-01-21 07:58:00,
2013-01-21 01:02:00,58.6,15.3,30.05,North,10,7.0,8.0,18,0.00,,,0.00,0,WeatherHawk,2013-01-21 08:02:00,
2013-01-21 01:05:00,57.6,15.6,30.05,NNE,23,3.0,8.0,19,0.00,,,0.00,0,WeatherHawk,2013-01-21 08:05:00,
2013-01-21 01:07:00,56.7,16.1,30.05,NNE,24,3.0,-999.0,20,0.00,,,0.00,0,WeatherHawk,2013-01-21 08:07:00,
2013-01-21 01:12:00,55.0,15.8,30.05,North,10,3.0,8.0,21,0.00,,,0.00,0,WeatherHawk,2013-01-21 08:12:00,
2013-01-21 01:13:00,54.9,15.7,30.05,North,6,4.0,8.0,21,0.00,,,0.00,0,WeatherHawk,2013-01-21 08:13:00,
2013-01-21 01:14:00,54.9,15.7,30.05,North,359,4.0,8.0,21,0.00,,,0.00,0,WeatherHawk,2013-01-21 08:14:00,
2013-01-21 01:17:00,54.9,15.7,30.05,North,349,4.0,-999.0,21,0.00,,,0.00,0,WeatherHawk,2013-01-21 08:17:00,
2013-01-21 01:20:00,55.2,17.1,30.05,North,357,3.0,0.0,22,0.00,,,0.00,0,WeatherHawk,2013-01-21 08:20:00,
2013-01-21 01:22:00,55.2,17.1,30.05,North,352,4.0,-999.0,22,0.00,,,0.00,1,WeatherHawk,2013-01-21 08:22:00,
2013-01-21 01:23:00,55.4,17.2,30.05,NNW,343,4.0,0.0,22,0.00,,,0.00,0,WeatherHawk,2013-01-21 08:23:00,
2013-01-21 01:27:00,55.0,16.9,30.05,North,349,5.0,0.0,22,0.00,,,0.00,0,WeatherHawk,2013-01-21 08:27:00,
2013-01-21 01:28:00,55.4,17.2,30.05,North,354,5.0,6.0,22,0.00,,,0.00,0,WeatherHawk,2013-01-21 08:28:00,
2013-01-21 01:32:00,55.2,17.1,30.05,North,356,5.0,6.0,22,0.00,,,0.00,0,WeatherHawk,2013-01-21 08:32:00,
2013-01-21 01:36:00,54.7,17.6,30.05,North,351,5.0,6.0,23,0.00,,,0.00,0,WeatherHawk,2013-01-21 08:36:00,
2013-01-21 01:37:00,54.7,16.6,30.05,North,352,6.0,0.0,22,0.00,,,0.00,0,WeatherHawk,2013-01-21 08:37:00,
2013-01-21 01:39:00,54.9,17.8,30.05,North,358,5.0,0.0,23,0.00,,,0.00,0,WeatherHawk,2013-01-21 08:39:00,
2013-01-21 01:41:00,54.7,17.6,30.05,North,2,5.0,0.0,23,0.00,,,0.00,0,WeatherHawk,2013-01-21 08:41:00,
2013-01-21 01:44:00,54.5,17.5,30.05,North,4,5.0,0.0,23,0.00,,,0.00,0,WeatherHawk,2013-01-21 08:44:00,
2013-01-21 01:45:00,54.5,16.4,30.05,North,357,6.0,0.0,22,0.00,,,0.00,0,WeatherHawk,2013-01-21 08:45:00,
2013-01-21 01:46:00,54.5,16.4,30.05,North,357,6.0,0.0,22,0.00,,,0.00,0,WeatherHawk,2013-01-21 08:46:00,
2013-01-21 01:48:00,55.2,14.9,30.05,North,350,6.0,6.0,20,0.00,,,0.00,0,WeatherHawk,2013-01-21 08:48:00,
2013-01-21 01:52:00,55.9,14.3,30.05,NNW,344,7.0,7.0,19,0.00,,,0.00,0,WeatherHawk,2013-01-21 08:52:00,
2013-01-21 01:53:00,56.1,14.4,30.05,NNW,338,6.0,6.0,19,0.00,,,0.00,0,WeatherHawk,2013-01-21 08:53:00,
2013-01-21 01:59:00,56.1,14.4,30.05,NNW,348,6.0,0.0,19,0.00,,,0.00,0,WeatherHawk,2013-01-21 08:59:00,
2013-01-21 02:01:00,56.3,13.4,30.05,North,351,6.0,0.0,18,0.00,,,0.00,0,WeatherHawk,2013-01-21 09:01:00,
2013-01-21 02:02:00,56.3,13.4,30.05,North,355,6.0,0.0,18,0.00,,,0.00,0,WeatherHawk,2013-01-21 09:02:00,
2013-01-21 02:06:00,56.3,13.4,30.05,North,357,6.0,0.0,18,0.00,,,0.00,0,WeatherHawk,2013-01-21 09:06:00,
2013-01-21 02:07:00,56.3,13.4,30.05,North,4,6.0,0.0,18,0.00,,,0.00,0,WeatherHawk,2013-01-21 09:07:00,
2013-01-21 02:08:00,56.3,13.4,30.05,North,4,6.0,6.0,18,0.00,,,0.00,0,WeatherHawk,2013-01-21 09:08:00,
2013-01-21 02:10:00,56.3,13.4,30.05,North,3,6.0,6.0,18,0.00,,,0.00,0,WeatherHawk,2013-01-21 09:10:00,
2013-01-21 02:11:00,56.3,13.4,30.05,North,5,6.0,6.0,18,0.00,,,0.00,0,WeatherHawk,2013-01-21 09:11:00,
2013-01-21 02:15:00,56.1,13.2,30.05,NNE,12,6.0,6.0,18,0.00,,,0.00,1,WeatherHawk,2013-01-21 09:15:00,
2013-01-21 02:16:00,56.1,13.2,30.05,NNE,18,6.0,6.0,18,0.00,,,0.00,0,WeatherHawk,2013-01-21 09:16:00,
2013-01-21 02:17:00,56.1,13.2,30.05,North,11,5.0,7.0,18,0.00,,,0.00,0,WeatherHawk,2013-01-21 09:17:00,
2013-01-21 02:21:00,55.8,12.9,30.05,NNE,13,6.0,7.0,18,0.00,,,0.00,0,WeatherHawk,2013-01-21 09:21:00,
2013-01-21 02:22:00,56.3,12.1,30.05,North,4,6.0,7.0,17,0.00,,,0.00,0,WeatherHawk,2013-01-21 09:22:00,
2013-01-21 02:25:00,56.8,12.5,30.05,North,10,6.0,7.0,17,0.00,,,0.00,0,WeatherHawk,2013-01-21 09:25:00,
2013-01-21 02:26:00,57.0,12.7,30.05,North,8,7.0,-999.0,17,0.00,,,0.00,0,WeatherHawk,2013-01-21 09:26:00,
2013-01-21 02:27:00,57.2,12.8,30.05,North,7,7.0,0.0,17,0.00,,,0.00,1,WeatherHawk,2013-01-21 09:27:00,
2013-01-21 02:31:00,56.8,13.8,30.05,North,7,6.0,7.0,18,0.00,,,0.00,0,WeatherHawk,2013-01-21 09:31:00,
2013-01-21 02:32:00,56.8,13.8,30.05,North,7,6.0,7.0,18,0.00,,,0.00,0,WeatherHawk,2013-01-21 09:32:00,
2013-01-21 02:33:00,56.7,13.7,30.05,North,5,6.0,7.0,18,0.00,,,0.00,0,WeatherHawk,2013-01-21 09:33:00,
2013-01-21 02:38:00,55.6,14.0,30.05,North,352,6.0,7.0,19,0.00,,,0.00,0,WeatherHawk,2013-01-21 09:38:00,
2013-01-21 02:40:00,55.6,14.0,30.05,North,356,5.0,7.0,19,0.00,,,0.00,0,WeatherHawk,2013-01-21 09:40:00,
2013-01-21 02:41:00,55.8,14.1,30.05,North,356,5.0,7.0,19,0.00,,,0.00,0,WeatherHawk,2013-01-21 09:41:00,
2013-01-21 02:45:00,55.8,14.1,30.05,NNW,348,6.0,7.0,19,0.00,,,0.00,0,WeatherHawk,2013-01-21 09:45:00,
2013-01-21 02:46:00,55.8,14.1,30.05,North,354,6.0,7.0,19,0.00,,,0.00,0,WeatherHawk,2013-01-21 09:46:00,
2013-01-21 02:47:00,55.6,14.0,30.05,North,354,5.0,0.0,19,0.00,,,0.00,0,WeatherHawk,2013-01-21 09:47:00,
2013-01-21 02:49:00,55.4,15.0,30.04,NNE,21,6.0,0.0,20,0.00,,,0.00,0,WeatherHawk,2013-01-21 09:49:00,
2013-01-21 02:51:00,55.2,14.9,30.04,NNE,16,6.0,0.0,20,0.00,,,0.00,0,WeatherHawk,2013-01-21 09:51:00,
2013-01-21 02:52:00,54.9,14.6,30.04,NNE,18,6.0,0.0,20,0.00,,,0.00,0,WeatherHawk,2013-01-21 09:52:00,
2013-01-21 02:54:00,54.3,15.2,30.04,North,7,6.0,0.0,21,0.00,,,0.00,0,WeatherHawk,2013-01-21 09:54:00,
2013-01-21 02:56:00,54.1,15.1,30.04,NNE,17,7.0,0.0,21,0.00,,,0.00,1,WeatherHawk,2013-01-21 09:56:00,
2013-01-21 03:01:00,54.3,16.3,30.04,NNE,18,7.0,7.0,22,0.00,,,0.00,0,WeatherHawk,2013-01-21 10:01:00,
2013-01-21 03:02:00,54.1,15.1,30.04,NNE,20,7.0,7.0,21,0.00,,,0.00,0,WeatherHawk,2013-01-21 10:02:00,
2013-01-21 03:06:00,54.0,16.0,30.04,NNE,20,7.0,-999.0,22,0.00,,,0.00,0,WeatherHawk,2013-01-21 10:06:00,
2013-01-21 03:10:00,54.0,16.0,30.04,NNE,30,7.0,0.0,22,0.00,,,0.00,1,WeatherHawk,2013-01-21 10:10:00,
2013-01-21 03:11:00,53.8,15.8,30.04,NNE,31,7.0,0.0,22,0.00,,,0.00,1,WeatherHawk,2013-01-21 10:11:00,
2013-01-21 03:12:00,53.8,15.8,30.04,NNE,31,8.0,0.0,22,0.00,,,0.00,0,WeatherHawk,2013-01-21 10:12:00,
2013-01-21 03:14:00,53.6,15.7,30.04,NE,35,8.0,0.0,22,0.00,,,0.00,0,WeatherHawk,2013-01-21 10:14:00,
2013-01-21 03:18:00,53.2,15.4,30.03,NNE,28,9.0,0.0,22,0.00,,,0.00,0,WeatherHawk,2013-01-21 10:18:00,
2013-01-21 03:19:00,53.4,15.5,30.03,NNE,25,9.0,0.0,22,0.00,,,0.00,0,WeatherHawk,2013-01-21 10:19:00,
2013-01-21 03:24:00,54.9,14.6,30.03,NNE,22,12.0,0.0,20,0.00,,,0.00,0,WeatherHawk,2013-01-21 10:24:00,
2013-01-21 03:25:00,55.4,13.8,30.03,NNE,26,13.0,0.0,19,0.00,,,0.00,0,WeatherHawk,2013-01-21 10:25:00,
2013-01-21 03:29:00,56.1,14.4,30.03,NNE,26,11.0,14.0,19,0.00,,,0.00,0,WeatherHawk,2013-01-21 10:29:00,
2013-01-21 03:30:00,56.1,13.2,30.03,NNE,24,11.0,14.0,18,0.00,,,0.00,0,WeatherHawk,2013-01-21 10:30:00,
2013-01-21 03:31:00,56.1,14.4,30.03,NNE,25,10.0,14.0,19,0.00,,,0.00,0,WeatherHawk,2013-01-21 10:31:00,
2013-01-21 03:33:00,56.5,13.5,30.03,NNE,20,10.0,14.0,18,0.00,,,0.00,0,WeatherHawk,2013-01-21 10:33:00,
2013-01-21 03:38:00,56.7,12.4,30.03,NNE,23,10.0,0.0,17,0.00,,,0.00,0,WeatherHawk,2013-01-21 10:38:00,
2013-01-21 03:39:00,56.7,12.4,30.03,NNE,16,11.0,0.0,17,0.00,,,0.00,0,WeatherHawk,2013-01-21 10:39:00,
2013-01-21 03:40:00,56.7,12.4,30.03,NNE,19,10.0,0.0,17,0.00,,,0.00,1,WeatherHawk,2013-01-21 10:40:00,
2013-01-21 03:41:00,56.7,13.7,30.03,NNE,20,11.0,0.0,18,0.00,,,0.00,1,WeatherHawk,2013-01-21 10:41:00,
2013-01-21 03:46:00,56.7,12.4,30.03,NNE,17,10.0,0.0,17,0.00,,,0.00,0,WeatherHawk,2013-01-21 10:46:00,
2013-01-21 03:49:00,56.8,12.5,30.03,NNE,16,10.0,0.0,17,0.00,,,0.00,0,WeatherHawk,2013-01-21 10:49:00,
2013-01-21 03:50:00,56.8,12.5,30.03,NNE,14,10.0,0.0,17,0.00,,,0.00,0,WeatherHawk,2013-01-21 10:50:00,
2013-01-21 03:55:00,57.2,11.4,30.03,NNE,18,10.0,0.0,16,0.00,,,0.00,0,WeatherHawk,2013-01-21 10:55:00,
2013-01-21 03:56:00,57.0,11.3,30.03,NNE,17,10.0,0.0,16,0.00,,,0.00,1,WeatherHawk,2013-01-21 10:56:00,
2013-01-21 03:58:00,56.8,11.1,30.03,NNE,13,11.0,0.0,16,0.00,,,0.00,0,WeatherHawk,2013-01-21 10:58:00,
2013-01-21 04:01:00,56.7,11.0,30.03,NNE,16,11.0,0.0,16,0.00,,,0.00,0,WeatherHawk,2013-01-21 11:01:00,
2013-01-21 04:03:00,56.7,11.0,30.03,NNE,14,11.0,0.0,16,0.00,,,0.00,0,WeatherHawk,2013-01-21 11:03:00,
2013-01-21 04:04:00,56.7,11.0,30.03,North,11,12.0,0.0,16,0.00,,,0.00,0,WeatherHawk,2013-01-21 11:04:00,
2013-01-21 04:08:00,56.7,11.0,30.03,North,4,12.0,13.0,16,0.00,,,0.00,0,WeatherHawk,2013-01-21 11:08:00,
2013-01-21 04:10:00,56.7,12.4,30.04,North,2,12.0,13.0,17,0.00,,,0.00,0,WeatherHawk,2013-01-21 11:10:00,
2013-01-21 04:11:00,56.7,12.4,30.04,North,2,12.0,13.0,17,0.00,,,0.00,0,WeatherHawk,2013-01-21 11:11:00,
2013-01-21 04:13:00,56.7,11.0,30.04,North,359,10.0,13.0,16,0.00,,,0.00,0,WeatherHawk,2013-01-21 11:13:00,
2013-01-21 04:16:00,57.0,11.3,30.04,North,359,11.0,13.0,16,0.00,,,0.00,0,WeatherHawk,2013-01-21 11:16:00,
2013-01-21 04:17:00,57.0,11.3,30.04,North,0,9.0,0.0,16,0.00,,,0.00,0,WeatherHawk,2013-01-21 11:17:00,
2013-01-21 04:22:00,57.4,11.6,30.03,North,358,9.0,0.0,16,0.00,,,0.00,0,WeatherHawk,2013-01-21 11:22:00,
2013-01-21 04:23:00,57.4,11.6,30.03,North,1,11.0,0.0,16,0.00,,,0.00,0,WeatherHawk,2013-01-21 11:23:00,
2013-01-21 04:24:00,57.4,11.6,30.03,North,2,12.0,0.0,16,0.00,,,0.00,0,WeatherHawk,2013-01-21 11:24:00,
2013-01-21 04:25:00,57.4,11.6,30.03,North,359,10.0,0.0,16,0.00,,,0.00,0,WeatherHawk,2013-01-21 11:25:00,
2013-01-21 04:27:00,57.4,11.6,30.03,North,1,11.0,13.0,16,0.00,,,0.00,0,WeatherHawk,2013-01-21 11:27:00,
2013-01-21 04:29:00,57.2,11.4,30.03,North,2,13.0,13.0,16,0.00,,,0.00,0,WeatherHawk,2013-01-21 11:29:00,
2013-01-21 04:32:00,57.4,11.6,30.03,North,5,12.0,13.0,16,0.00,,,0.00,0,WeatherHawk,2013-01-21 11:32:00,
2013-01-21 04:33:00,57.4,11.6,30.03,North,7,11.0,13.0,16,0.00,,,0.00,1,WeatherHawk,2013-01-21 11:33:00,
2013-01-21 04:34:00,57.2,11.4,30.03,North,5,10.0,13.0,16,0.00,,,0.00,0,WeatherHawk,2013-01-21 11:34:00,
2013-01-21 04:37:00,57.2,11.4,30.03,North,10,9.0,0.0,16,0.00,,,0.00,0,WeatherHawk,2013-01-21 11:37:00,
2013-01-21 04:39:00,57.0,11.3,30.03,North,9,9.0,0.0,16,0.00,,,0.00,1,WeatherHawk,2013-01-21 11:39:00,
2013-01-21 04:41:00,56.8,11.1,30.03,North,6,9.0,0.0,16,0.00,,,0.00,0,WeatherHawk,2013-01-21 11:41:00,
2013-01-21 04:44:00,56.7,11.0,30.04,North,1,9.0,0.0,16,0.00,,,0.00,0,WeatherHawk,2013-01-21 11:44:00,
2013-01-21 04:48:00,56.3,12.1,30.04,North,3,9.0,0.0,17,0.00,,,0.00,0,WeatherHawk,2013-01-21 11:48:00,
2013-01-21 04:50:00,56.3,12.1,30.04,North,3,9.0,0.0,17,0.00,,,0.00,0,WeatherHawk,2013-01-21 11:50:00,
2013-01-21 04:51:00,56.1,11.9,30.04,North,4,9.0,0.0,17,0.00,,,0.00,0,WeatherHawk,2013-01-21 11:51:00,
2013-01-21 04:55:00,56.3,12.1,30.04,North,10,9.0,0.0,17,0.00,,,0.00,0,WeatherHawk,2013-01-21 11:55:00,
2013-01-21 04:56:00,56.3,12.1,30.04,NNE,13,8.0,-999.0,17,0.00,,,0.00,0,WeatherHawk,2013-01-21 11:56:00,
2013-01-21 04:58:00,55.9,11.8,30.04,NNE,15,8.0,10.0,17,0.00,,,0.00,0,WeatherHawk,2013-01-21 11:58:00,
2013-01-21 05:01:00,55.8,11.6,30.04,NNE,21,9.0,10.0,17,0.00,,,0.00,1,WeatherHawk,2013-01-21 12:01:00,
2013-01-21 05:03:00,55.9,11.8,30.04,NNE,25,9.0,10.0,17,0.00,,,0.00,0,WeatherHawk,2013-01-21 12:03:00,
2013-01-21 05:06:00,56.1,11.9,30.04,NNE,23,10.0,10.0,17,0.00,,,0.00,0,WeatherHawk,2013-01-21 12:06:00,
2013-01-21 05:09:00,56.3,10.7,30.04,NNE,16,10.0,0.0,16,0.00,,,0.00,0,WeatherHawk,2013-01-21 12:09:00,
2013-01-21 05:11:00,56.5,10.9,30.04,NNE,22,9.0,0.0,16,0.00,,,0.00,0,WeatherHawk,2013-01-21 12:11:00,
2013-01-21 05:16:00,56.5,10.9,30.03,NNE,20,10.0,0.0,16,0.00,,,0.00,0,WeatherHawk,2013-01-21 12:16:00,
2013-01-21 05:21:00,55.6,14.0,30.04,NNW,341,6.0,11.0,19,0.00,,,0.00,0,WeatherHawk,2013-01-21 12:21:00,
2013-01-21 05:23:00,54.3,14.1,30.04,NNW,339,6.0,11.0,20,0.00,,,0.00,0,WeatherHawk,2013-01-21 12:23:00,
2013-01-21 05:25:00,54.1,12.8,30.04,NNW,348,8.0,11.0,19,0.00,,,0.00,0,WeatherHawk,2013-01-21 12:25:00,
2013-01-21 05:27:00,54.9,13.4,30.04,North,351,9.0,12.0,19,0.00,,,0.00,0,WeatherHawk,2013-01-21 12:27:00,
2013-01-21 05:28:00,55.0,13.5,30.04,North,352,9.0,12.0,19,0.00,,,0.00,1,WeatherHawk,2013-01-21 12:28:00,
2013-01-21 05:29:00,55.2,13.7,30.04,North,351,9.0,12.0,19,0.00,,,0.00,0,WeatherHawk,2013-01-21 12:29:00,
2013-01-21 05:31:00,55.2,13.7,30.04,North,1,9.0,12.0,19,0.00,,,0.00,0,WeatherHawk,2013-01-21 12:31:00,
2013-01-21 05:34:00,54.9,13.4,30.04,North,0,9.0,12.0,19,0.00,,,0.00,1,WeatherHawk,2013-01-21 12:34:00,
2013-01-21 05:35:00,54.7,14.4,30.04,North,1,8.0,12.0,20,0.00,,,0.00,0,WeatherHawk,2013-01-21 12:35:00,
2013-01-21 05:36:00,54.7,14.4,30.04,North,1,8.0,-999.0,20,0.00,,,0.00,0,WeatherHawk,2013-01-21 12:36:00,
2013-01-21 05:38:00,54.1,14.0,30.04,North,356,7.0,0.0,20,0.00,,,0.00,0,WeatherHawk,2013-01-21 12:38:00,
2013-01-21 05:39:00,54.1,14.0,30.04,North,356,7.0,0.0,20,0.00,,,0.00,0,WeatherHawk,2013-01-21 12:39:00,
2013-01-21 05:40:00,54.0,13.8,30.04,North,0,6.0,0.0,20,0.00,,,0.00,0,WeatherHawk,2013-01-21 12:40:00,
2013-01-21 05:43:00,53.8,13.7,30.04,North,358,6.0,0.0,20,0.00,,,0.00,0,WeatherHawk,2013-01-21 12:43:00,
2013-01-21 05:44:00,53.8,13.7,30.04,North,2,7.0,0.0,20,0.00,,,0.00,0,WeatherHawk,2013-01-21 12:44:00,
2013-01-21 05:46:00,53.8,13.7,30.04,North,1,6.0,0.0,20,0.00,,,0.00,0,WeatherHawk,2013-01-21 12:46:00,
2013-01-21 05:47:00,53.8,13.7,30.04,North,3,6.0,0.0,20,0.00,,,0.00,1,WeatherHawk,2013-01-21 12:47:00,
2013-01-21 05:48:00,54.0,13.8,30.04,North,1,8.0,8.0,20,0.00,,,0.00,0,WeatherHawk,2013-01-21 12:48:00,
2013-01-21 05:49:00,54.0,13.8,30.04,North,1,6.0,8.0,20,0.00,,,0.00,0,WeatherHawk,2013-01-21 12:49:00,
2013-01-21 05:53:00,53.8,13.7,30.04,North,3,7.0,8.0,20,0.00,,,0.00,0,WeatherHawk,2013-01-21 12:53:00,
2013-01-21 05:56:00,54.0,13.8,30.04,North,359,8.0,8.0,20,0.00,,,0.00,0,WeatherHawk,2013-01-21 12:56:00,
2013-01-21 06:01:00,53.8,13.7,30.04,North,2,7.0,9.0,20,0.00,,,0.00,0,WeatherHawk,2013-01-21 13:01:00,
2013-01-21 06:02:00,53.8,13.7,30.04,North,0,7.0,9.0,20,0.00,,,0.00,0,WeatherHawk,2013-01-21 13:02:00,
2013-01-21 06:03:00,53.6,13.5,30.04,North,4,7.0,9.0,20,0.00,,,0.00,0,WeatherHawk,2013-01-21 13:03:00,
2013-01-21 06:05:00,53.8,13.7,30.04,North,2,7.0,9.0,20,0.00,,,0.00,0,WeatherHawk,2013-01-21 13:05:00,
2013-01-21 06:06:00,53.8,13.7,30.04,North,0,7.0,9.0,20,0.00,,,0.00,1,WeatherHawk,2013-01-21 13:06:00,
2013-01-21 06:07:00,54.0,13.8,30.04,North,0,7.0,9.0,20,0.00,,,0.00,0,WeatherHawk,2013-01-21 13:07:00,
2013-01-21 06:09:00,54.0,13.8,30.04,North,1,8.0,9.0,20,0.00,,,0.00,0,WeatherHawk,2013-01-21 13:09:00,
2013-01-21 06:12:00,54.1,14.0,30.04,North,1,7.0,-999.0,20,0.00,,,0.00,0,WeatherHawk,2013-01-21 13:12:00,
2013-01-21 06:17:00,54.9,13.4,30.04,North,354,9.0,9.0,19,0.00,,,0.00,1,WeatherHawk,2013-01-21 13:17:00,
2013-01-21 06:18:00,54.9,13.4,30.04,North,349,9.0,10.0,19,0.00,,,0.00,0,WeatherHawk,2013-01-21 13:18:00,
2013-01-21 06:19:00,54.9,13.4,30.04,North,350,9.0,10.0,19,0.00,,,0.00,0,WeatherHawk,2013-01-21 13:19:00,
2013-01-21 06:22:00,54.5,13.1,30.04,North,353,9.0,10.0,19,0.00,,,0.00,0,WeatherHawk,2013-01-21 13:22:00,
2013-01-21 06:23:00,54.3,14.1,30.04,North,356,7.0,10.0,20,0.00,,,0.00,0,WeatherHawk,2013-01-21 13:23:00,
2013-01-21 06:24:00,54.1,14.0,30.04,North,358,8.0,10.0,20,0.00,,,0.00,1,WeatherHawk,2013-01-21 13:24:00,
2013-01-21 06:27:00,53.8,13.7,30.04,North,357,7.0,10.0,20,0.00,,,0.00,0,WeatherHawk,2013-01-21 13:27:00,
2013-01-21 06:29:00,53.8,13.7,30.04,North,0,6.0,9.0,20,0.00,,,0.00,0,WeatherHawk,2013-01-21 13:29:00,
2013-01-21 06:30:00,53.8,13.7,30.04,North,358,6.0,9.0,20,0.00,,,0.00,0,WeatherHawk,2013-01-21 13:30:00,
2013-01-21 06:32:00,53.8,13.7,30.04,North,358,7.0,-999.0,20,0.00,,,0.00,0,WeatherHawk,2013-01-21 13:32:00,
2013-01-21 06:36:00,54.3,13.0,30.04,North,357,8.0,9.0,19,0.00,,,0.00,0,WeatherHawk,2013-01-21 13:36:00,
2013-01-21 06:37:00,54.3,13.0,30.04,North,357,8.0,9.0,19,0.00,,,0.00,0,WeatherHawk,2013-01-21 13:37:00,
2013-01-21 06:38:00,54.5,13.1,30.04,North,0,8.0,9.0,19,0.00,,,0.00,0,WeatherHawk,2013-01-21 13:38:00,
2013-01-21 06:42:00,54.5,13.1,30.04,North,358,8.0,9.0,19,0.00,,,0.00,0,WeatherHawk,2013-01-21 13:42:00,
2013-01-21 06:45:00,54.7,12.0,30.04,North,355,10.0,10.0,18,0.00,,,0.00,0,WeatherHawk,2013-01-21 13:45:00,
2013-01-21 06:46:00,54.9,12.2,30.04,North,353,9.0,9.0,18,0.00,,,0.00,0,WeatherHawk,2013-01-21 13:46:00,
2013-01-21 06:47:00,55.0,12.3,30.04,North,354,9.0,9.0,18,0.00,,,0.00,0,WeatherHawk,2013-01-21 13:47:00,
2013-01-21 06:52:00,54.5,13.1,30.05,North,357,8.0,11.0,19,0.00,,,0.00,0,WeatherHawk,2013-01-21 13:52:00,
2013-01-21 06:53:00,54.5,13.1,30.05,North,353,8.0,11.0,19,0.00,,,0.00,0,WeatherHawk,2013-01-21 13:53:00,
2013-01-21 06:55:00,54.7,13.3,30.05,North,358,9.0,11.0,19,0.00,,,0.00,0,WeatherHawk,2013-01-21 13:55:00,
2013-01-21 06:57:00,54.7,13.3,30.05,North,359,9.0,-999.0,19,0.00,,,0.00,0,WeatherHawk,2013-01-21 13:57:00,
2013-01-21 06:58:00,54.7,13.3,30.05,North,2,8.0,10.0,19,0.00,,,0.00,1,WeatherHawk,2013-01-21 13:58:00,
2013-01-21 06:59:00,54.5,13.1,30.05,North,5,8.0,10.0,19,0.00,,,0.00,0,WeatherHawk,2013-01-21 13:59:00,
2013-01-21 07:02:00,54.5,13.1,30.05,North,7,8.0,-999.0,19,0.00,,,0.00,0,WeatherHawk,2013-01-21 14:02:00,
2013-01-21 07:03:00,54.5,13.1,30.05,North,8,8.0,10.0,19,0.00,,,0.00,0,WeatherHawk,2013-01-21 14:03:00,
2013-01-21 07:07:00,54.5,13.1,30.05,North,1,8.0,10.0,19,0.00,,,0.00,0,WeatherHawk,2013-01-21 14:07:00,
2013-01-21 07:08:00,54.5,13.1,30.05,North,2,8.0,9.0,19,0.00,,,0.00,0,WeatherHawk,2013-01-21 14:08:00,
2013-01-21 07:10:00,54.7,13.3,30.05,North,1,8.0,9.0,19,0.00,,,0.00,0,WeatherHawk,2013-01-21 14:10:00,
2013-01-21 07:12:00,54.7,13.3,30.05,North,0,8.0,9.0,19,0.00,,,0.00,0,WeatherHawk,2013-01-21 14:12:00,
2013-01-21 07:16:00,54.7,12.0,30.05,North,355,8.0,9.0,18,0.00,,,0.00,0,WeatherHawk,2013-01-21 14:16:00,
2013-01-21 07:17:00,54.7,12.0,30.05,North,359,6.0,9.0,18,0.00,,,0.00,0,WeatherHawk,2013-01-21 14:17:00,
2013-01-21 07:18:00,54.7,12.0,30.05,North,355,9.0,10.0,18,0.00,,,0.00,1,WeatherHawk,2013-01-21 14:18:00,
2013-01-21 07:22:00,55.0,12.3,30.06,North,356,8.0,10.0,18,0.00,,,0.00,1,WeatherHawk,2013-01-21 14:22:00,
2013-01-21 07:25:00,55.0,12.3,30.06,North,356,10.0,10.0,18,0.00,,,0.00,1,WeatherHawk,2013-01-21 14:25:00,
2013-01-21 07:26:00,55.0,12.3,30.06,North,355,9.0,10.0,18,0.00,,,0.00,0,WeatherHawk,2013-01-21 14:26:00,
2013-01-21 07:28:00,55.2,12.5,30.06,North,354,8.0,10.0,18,0.00,,,0.00,1,WeatherHawk,2013-01-21 14:28:00,
2013-01-21 07:31:00,55.4,12.6,30.06,North,356,9.0,10.0,18,0.00,,,0.00,3,WeatherHawk,2013-01-21 14:31:00,
2013-01-21 07:32:00,55.4,12.6,30.06,North,356,8.0,10.0,18,0.00,,,0.00,2,WeatherHawk,2013-01-21 14:32:00,
2013-01-21 07:34:00,55.4,12.6,30.06,North,355,9.0,10.0,18,0.00,,,0.00,5,WeatherHawk,2013-01-21 14:34:00,
2013-01-21 07:37:00,55.6,12.8,30.06,North,357,9.0,10.0,18,0.00,,,0.00,0,WeatherHawk,2013-01-21 14:37:00,
2013-01-21 07:39:00,55.4,12.6,30.06,North,357,8.0,11.0,18,0.00,,,0.00,7,WeatherHawk,2013-01-21 14:39:00,
2013-01-21 07:42:00,55.2,12.5,30.06,North,0,9.0,-999.0,18,0.00,,,0.00,10,WeatherHawk,2013-01-21 14:42:00,
2013-01-21 07:43:00,55.4,12.6,30.06,North,0,8.0,11.0,18,0.00,,,0.00,7,WeatherHawk,2013-01-21 14:43:00,
2013-01-21 07:44:00,55.2,12.5,30.06,North,2,9.0,11.0,18,0.00,,,0.00,16,WeatherHawk,2013-01-21 14:44:00,
2013-01-21 07:47:00,55.2,12.5,30.06,North,3,9.0,-999.0,18,0.00,,,0.00,21,WeatherHawk,2013-01-21 14:47:00,
2013-01-21 07:49:00,55.2,12.5,30.06,North,5,9.0,10.0,18,0.00,,,0.00,27,WeatherHawk,2013-01-21 14:49:00,
2013-01-21 07:50:00,55.2,12.5,30.06,North,1,9.0,10.0,18,0.00,,,0.00,27,WeatherHawk,2013-01-21 14:50:00,
2013-01-21 07:52:00,54.9,13.4,30.06,North,0,7.0,10.0,19,0.00,,,0.00,32,WeatherHawk,2013-01-21 14:52:00,
2013-01-21 07:53:00,54.9,13.4,30.06,North,0,7.0,10.0,19,0.00,,,0.00,33,WeatherHawk,2013-01-21 14:53:00,
2013-01-21 07:55:00,54.9,13.4,30.06,North,358,6.0,10.0,19,0.00,,,0.00,38,WeatherHawk,2013-01-21 14:55:00,
2013-01-21 07:57:00,54.7,13.3,30.07,North,2,6.0,-999.0,19,0.00,,,0.00,36,WeatherHawk,2013-01-21 14:57:00,
2013-01-21 08:00:00,54.9,13.4,30.07,North,349,6.0,10.0,19,0.00,,,0.00,48,WeatherHawk,2013-01-21 15:00:00,
2013-01-21 08:02:00,55.0,13.5,30.07,North,351,6.0,10.0,19,0.00,,,0.00,52,WeatherHawk,2013-01-21 15:02:00,
2013-01-21 08:06:00,54.9,13.4,30.07,North,351,6.0,10.0,19,0.00,,,0.00,62,WeatherHawk,2013-01-21 15:06:00,
2013-01-21 08:07:00,54.9,13.4,30.07,North,351,6.0,-999.0,19,0.00,,,0.00,62,WeatherHawk,2013-01-21 15:07:00,
2013-01-21 08:11:00,54.7,14.4,30.07,NNW,345,7.0,7.0,20,0.00,,,0.00,74,WeatherHawk,2013-01-21 15:11:00,
2013-01-21 08:12:00,54.7,13.3,30.07,North,349,7.0,7.0,19,0.00,,,0.00,77,WeatherHawk,2013-01-21 15:12:00,
2013-01-21 08:17:00,54.7,14.4,30.07,North,354,8.0,8.0,20,0.00,,,0.00,92,WeatherHawk,2013-01-21 15:17:00,
2013-01-21 08:18:00,54.7,14.4,30.07,North,350,8.0,9.0,20,0.00,,,0.00,93,WeatherHawk,2013-01-21 15:18:00,
2013-01-21 08:19:00,54.7,14.4,30.07,North,350,8.0,9.0,20,0.00,,,0.00,95,WeatherHawk,2013-01-21 15:19:00,
2013-01-21 08:23:00,54.5,15.4,30.07,NNW,347,8.0,9.0,21,0.00,,,0.00,106,WeatherHawk,2013-01-21 15:23:00,
2013-01-21 08:25:00,54.1,16.1,30.08,NNW,347,7.0,9.0,22,0.00,,,0.00,111,WeatherHawk,2013-01-21 15:25:00,
2013-01-21 08:26:00,54.1,16.1,30.08,North,349,8.0,9.0,22,0.00,,,0.00,116,WeatherHawk,2013-01-21 15:26:00,
2013-01-21 08:30:00,54.0,16.0,30.08,NNW,345,8.0,9.0,22,0.00,,,0.00,125,WeatherHawk,2013-01-21 15:30:00,
2013-01-21 08:31:00,53.8,15.8,30.08,NNW,347,7.0,9.0,22,0.00,,,0.00,128,WeatherHawk,2013-01-21 15:31:00,
2013-01-21 08:32:00,53.8,15.8,30.08,North,350,9.0,9.0,22,0.00,,,0.00,130,WeatherHawk,2013-01-21 15:32:00,
2013-01-21 08:33:00,53.8,15.8,30.08,North,351,9.0,9.0,22,0.00,,,0.00,134,WeatherHawk,2013-01-21 15:33:00,
2013-01-21 08:37:00,54.1,17.2,30.08,North,351,9.0,9.0,23,0.00,,,0.00,145,WeatherHawk,2013-01-21 15:37:00,
2013-01-21 08:39:00,54.3,17.3,30.08,North,355,9.0,10.0,23,0.00,,,0.00,151,WeatherHawk,2013-01-21 15:39:00,
2013-01-21 08:41:00,54.3,18.3,30.08,North,353,9.0,10.0,24,0.00,,,0.00,157,WeatherHawk,2013-01-21 15:41:00,
2013-01-21 08:42:00,54.3,18.3,30.09,North,351,9.0,10.0,24,0.00,,,0.00,161,WeatherHawk,2013-01-21 15:42:00,
2013-01-21 08:44:00,54.3,18.3,30.08,North,353,9.0,10.0,24,0.00,,,0.00,167,WeatherHawk,2013-01-21 15:44:00,
2013-01-21 08:47:00,54.3,18.3,30.09,North,350,8.0,-999.0,24,0.00,,,0.00,174,WeatherHawk,2013-01-21 15:47:00,
2013-01-21 08:49:00,54.5,18.5,30.09,North,354,9.0,10.0,24,0.00,,,0.00,180,WeatherHawk,2013-01-21 15:49:00,
2013-01-21 08:51:00,54.7,18.6,30.09,NNW,346,9.0,10.0,24,0.00,,,0.00,186,WeatherHawk,2013-01-21 15:51:00,
2013-01-21 08:55:00,54.9,18.8,30.09,North,350,10.0,10.0,24,0.00,,,0.00,200,WeatherHawk,2013-01-21 15:55:00,
2013-01-21 08:57:00,55.2,19.1,30.09,North,349,11.0,11.0,24,0.00,,,0.00,205,WeatherHawk,2013-01-21 15:57:00,
2013-01-21 08:59:00,55.6,18.4,30.09,NNW,347,11.0,11.0,23,0.00,,,0.00,211,WeatherHawk,2013-01-21 15:59:00,
2013-01-21 09:00:00,55.6,18.4,30.09,North,350,9.0,11.0,23,0.00,,,0.00,215,WeatherHawk,2013-01-21 16:00:00,
2013-01-21 09:02:00,55.8,18.5,30.09,North,354,9.0,11.0,23,0.00,,,0.00,219,WeatherHawk,2013-01-21 16:02:00,
2013-01-21 09:03:00,55.8,18.5,30.09,North,359,9.0,11.0,23,0.00,,,0.00,221,WeatherHawk,2013-01-21 16:03:00,
2013-01-21 09:05:00,55.9,18.7,30.09,North,358,9.0,11.0,23,0.00,,,0.00,229,WeatherHawk,2013-01-21 16:05:00,
2013-01-21 09:07:00,56.1,18.8,30.09,North,359,9.0,11.0,23,0.00,,,0.00,235,WeatherHawk,2013-01-21 16:07:00,
2013-01-21 09:09:00,56.5,18.1,30.09,North,352,10.0,11.0,22,0.00,,,0.00,243,WeatherHawk,2013-01-21 16:09:00,
2013-01-21 09:10:00,56.5,18.1,30.09,North,349,9.0,11.0,22,0.00,,,0.00,247,WeatherHawk,2013-01-21 16:10:00,
2013-01-21 09:12:00,56.7,18.3,30.10,North,353,10.0,11.0,22,0.00,,,0.00,250,WeatherHawk,2013-01-21 16:12:00,
2013-01-21 09:17:00,57.2,17.6,30.10,North,350,10.0,11.0,21,0.00,,,0.00,268,WeatherHawk,2013-01-21 16:17:00,
2013-01-21 09:18:00,57.4,17.8,30.10,NNW,348,9.0,12.0,21,0.00,,,0.00,271,WeatherHawk,2013-01-21 16:18:00,
2013-01-21 09:23:00,57.9,18.2,30.10,NNW,347,9.0,12.0,21,0.00,,,0.00,285,WeatherHawk,2013-01-21 16:23:00,
2013-01-21 09:24:00,57.9,18.2,30.10,North,354,8.0,12.0,21,0.00,,,0.00,290,WeatherHawk,2013-01-21 16:24:00,
2013-01-21 09:25:00,58.1,18.4,30.10,NNW,345,10.0,12.0,21,0.00,,,0.00,294,WeatherHawk,2013-01-21 16:25:00,
2013-01-21 09:27:00,58.1,19.5,30.10,North,355,10.0,12.0,22,0.00,,,0.00,298,WeatherHawk,2013-01-21 16:27:00,
2013-01-21 09:30:00,58.5,18.7,30.10,North,350,11.0,11.0,21,0.00,,,0.00,309,WeatherHawk,2013-01-21 16:30:00,
2013-01-21 09:32:00,58.6,17.7,30.10,North,356,10.0,11.0,20,0.00,,,0.00,315,WeatherHawk,2013-01-21 16:32:00,
2013-01-21 09:35:00,58.8,19.0,30.10,North,357,9.0,11.0,21,0.00,,,0.00,320,WeatherHawk,2013-01-21 16:35:00,
2013-01-21 09:36:00,58.8,19.0,30.10,North,1,8.0,11.0,21,0.00,,,0.00,327,WeatherHawk,2013-01-21 16:36:00,
2013-01-21 09:37:00,59.0,19.1,30.10,North,352,9.0,-999.0,21,0.00,,,0.00,329,WeatherHawk,2013-01-21 16:37:00,
2013-01-21 09:40:00,59.2,18.1,30.10,North,358,9.0,12.0,20,0.00,,,0.00,338,WeatherHawk,2013-01-21 16:40:00,
2013-01-21 09:41:00,59.4,18.3,30.10,North,0,10.0,12.0,20,0.00,,,0.00,341,WeatherHawk,2013-01-21 16:41:00,
2013-01-21 09:44:00,59.5,18.4,30.11,North,349,10.0,12.0,20,0.00,,,0.00,351,WeatherHawk,2013-01-21 16:44:00,
2013-01-21 09:45:00,59.5,18.4,30.11,North,1,8.0,12.0,20,0.00,,,0.00,352,WeatherHawk,2013-01-21 16:45:00,
2013-01-21 09:49:00,60.1,17.7,30.11,North,351,10.0,11.0,19,0.00,,,0.00,367,WeatherHawk,2013-01-21 16:49:00,
2013-01-21 09:50:00,60.1,17.7,30.11,North,356,10.0,11.0,19,0.00,,,0.00,367,WeatherHawk,2013-01-21 16:50:00,
2013-01-21 09:53:00,60.4,16.7,30.11,North,359,11.0,11.0,18,0.00,,,0.00,376,WeatherHawk,2013-01-21 16:53:00,
2013-01-21 09:55:00,60.8,17.0,30.11,North,353,11.0,11.0,18,0.00,,,0.00,384,WeatherHawk,2013-01-21 16:55:00,
2013-01-21 09:56:00,60.8,17.0,30.11,North,355,13.0,13.0,18,0.00,,,0.00,387,WeatherHawk,2013-01-21 16:56:00,
2013-01-21 09:59:00,61.0,17.2,30.11,North,355,12.0,14.0,18,0.00,,,0.00,394,WeatherHawk,2013-01-21 16:59:00,
2013-01-21 10:02:00,61.3,17.5,30.11,North,358,11.0,14.0,18,0.00,,,0.00,402,WeatherHawk,2013-01-21 17:02:00,
2013-01-21 10:05:00,61.5,17.6,30.11,North,0,13.0,14.0,18,0.00,,,0.00,412,WeatherHawk,2013-01-21 17:05:00,
2013-01-21 10:07:00,61.7,16.5,30.11,North,2,14.0,14.0,17,0.00,,,0.00,417,WeatherHawk,2013-01-21 17:07:00,
2013-01-21 10:10:00,61.9,16.6,30.11,North,357,13.0,14.0,17,0.00,,,0.00,423,WeatherHawk,2013-01-21 17:10:00,
2013-01-21 10:12:00,62.1,15.4,30.12,North,0,12.0,14.0,16,0.00,,,0.00,432,WeatherHawk,2013-01-21 17:12:00,
2013-01-21 10:13:00,62.1,16.7,30.12,North,359,13.0,14.0,17,0.00,,,0.00,433,WeatherHawk,2013-01-21 17:13:00,
2013-01-21 10:14:00,62.2,16.9,30.12,North,356,13.0,14.0,17,0.00,,,0.00,436,WeatherHawk,2013-01-21 17:14:00,
2013-01-21 10:17:00,62.4,15.6,30.12,North,353,16.0,16.0,16,0.00,,,0.00,441,WeatherHawk,2013-01-21 17:17:00,
2013-01-21 10:18:00,62.6,15.8,30.11,North,4,20.0,0.0,16,0.00,,,0.00,450,WeatherHawk,2013-01-21 17:18:00,
2013-01-21 10:21:00,62.8,14.5,30.12,North,2,17.0,19.0,15,0.00,,,0.00,454,WeatherHawk,2013-01-21 17:21:00,
2013-01-21 10:22:00,62.8,14.5,30.12,North,359,17.0,19.0,15,0.00,,,0.00,457,WeatherHawk,2013-01-21 17:22:00,
2013-01-21 10:24:00,62.8,14.5,30.12,North,0,16.0,19.0,15,0.00,,,0.00,463,WeatherHawk,2013-01-21 17:24:00,
2013-01-21 10:26:00,63.0,14.6,30.12,NNW,347,15.0,19.0,15,0.00,,,0.00,463,WeatherHawk,2013-01-21 17:26:00,
2013-01-21 10:27:00,63.0,14.6,30.12,North,356,17.0,-999.0,15,0.00,,,0.00,470,WeatherHawk,2013-01-21 17:27:00,
2013-01-21 10:29:00,63.1,14.7,30.12,North,350,12.0,20.0,15,0.00,,,0.00,475,WeatherHawk,2013-01-21 17:29:00,
2013-01-21 10:30:00,63.1,14.7,30.12,North,355,18.0,20.0,15,0.00,,,0.00,478,WeatherHawk,2013-01-21 17:30:00,
2013-01-21 10:32:00,63.1,14.7,30.12,North,354,17.0,20.0,15,0.00,,,0.00,481,WeatherHawk,2013-01-21 17:32:00,
2013-01-21 10:34:00,63.3,16.4,30.12,NNW,347,15.0,20.0,16,0.00,,,0.00,488,WeatherHawk,2013-01-21 17:34:00,
2013-01-21 10:37:00,63.5,16.5,30.12,NNW,343,12.0,20.0,16,0.00,,,0.00,496,WeatherHawk,2013-01-21 17:37:00,
2013-01-21 10:38:00,63.7,15.2,30.12,North,349,16.0,18.0,15,0.00,,,0.00,498,WeatherHawk,2013-01-21 17:38:00,
2013-01-21 10:42:00,63.7,15.2,30.12,NNW,344,14.0,18.0,15,0.00,,,0.00,505,WeatherHawk,2013-01-21 17:42:00,
2013-01-21 10:44:00,64.0,15.5,30.12,North,352,11.0,18.0,15,0.00,,,0.00,512,WeatherHawk,2013-01-21 17:44:00,
2013-01-21 10:45:00,64.0,15.5,30.12,NNW,348,10.0,18.0,15,0.00,,,0.00,514,WeatherHawk,2013-01-21 17:45:00,
2013-01-21 10:48:00,64.4,15.8,30.13,North,358,11.0,18.0,15,0.00,,,0.00,522,WeatherHawk,2013-01-21 17:48:00,
2013-01-21 10:50:00,64.4,15.8,30.13,NNW,345,15.0,18.0,15,0.00,,,0.00,525,WeatherHawk,2013-01-21 17:50:00,
2013-01-21 10:51:00,64.6,15.9,30.13,NNW,345,14.0,18.0,15,0.00,,,0.00,527,WeatherHawk,2013-01-21 17:51:00,
2013-01-21 10:52:00,64.6,15.9,30.13,North,349,15.0,18.0,15,0.00,,,0.00,530,WeatherHawk,2013-01-21 17:52:00,
2013-01-21 10:53:00,64.6,15.9,30.12,North,357,14.0,18.0,15,0.00,,,0.00,532,WeatherHawk,2013-01-21 17:53:00,
2013-01-21 10:57:00,64.9,14.6,30.12,NNW,338,15.0,18.0,14,0.00,,,0.00,540,WeatherHawk,2013-01-21 17:57:00,
2013-01-21 11:00:00,65.1,14.8,30.12,North,350,13.0,17.0,14,0.00,,,0.00,546,WeatherHawk,2013-01-21 18:00:00,
2013-01-21 11:01:00,65.3,14.9,30.12,North,349,14.0,17.0,14,0.00,,,0.00,547,WeatherHawk,2013-01-21 18:01:00,
2013-01-21 11:03:00,65.5,15.0,30.12,NNW,345,15.0,17.0,14,0.00,,,0.00,552,WeatherHawk,2013-01-21 18:03:00,
2013-01-21 11:04:00,65.5,15.0,30.12,North,355,14.0,17.0,14,0.00,,,0.00,552,WeatherHawk,2013-01-21 18:04:00,
2013-01-21 11:07:00,65.5,15.0,30.12,North,351,13.0,17.0,14,0.00,,,0.00,557,WeatherHawk,2013-01-21 18:07:00,
2013-01-21 11:08:00,65.5,15.0,30.12,North,351,11.0,17.0,14,0.00,,,0.00,559,WeatherHawk,2013-01-21 18:08:00,
2013-01-21 11:12:00,65.7,15.2,30.12,North,349,13.0,17.0,14,0.00,,,0.00,568,WeatherHawk,2013-01-21 18:12:00,
2013-01-21 11:13:00,65.7,15.2,30.12,North,354,13.0,17.0,14,0.00,,,0.00,569,WeatherHawk,2013-01-21 18:13:00,
2013-01-21 11:17:00,66.0,15.5,30.12,North,354,13.0,17.0,14,0.00,,,0.00,576,WeatherHawk,2013-01-21 18:17:00,
2013-01-21 11:20:00,66.4,15.8,30.12,NNW,348,11.0,17.0,14,0.00,,,0.00,585,WeatherHawk,2013-01-21 18:20:00,
2013-01-21 11:21:00,66.6,14.2,30.12,North,0,14.0,17.0,13,0.00,,,0.00,583,WeatherHawk,2013-01-21 18:21:00,
2013-01-21 11:24:00,66.6,14.2,30.12,North,354,14.0,17.0,13,0.00,,,0.00,588,WeatherHawk,2013-01-21 18:24:00,
2013-01-21 11:27:00,66.6,14.2,30.12,North,11,17.0,17.0,13,0.00,,,0.00,591,WeatherHawk,2013-01-21 18:27:00,
2013-01-21 11:32:00,67.1,14.6,30.11,North,8,19.0,19.0,13,0.00,,,0.00,607,WeatherHawk,2013-01-21 18:32:00,
2013-01-21 11:34:00,67.1,14.6,30.12,North,11,16.0,19.0,13,0.00,,,0.00,608,WeatherHawk,2013-01-21 18:34:00,
2013-01-21 11:37:00,67.3,12.9,30.11,North,4,19.0,-999.0,12,0.00,,,0.00,613,WeatherHawk,2013-01-21 18:37:00,
2013-01-21 11:38:00,67.3,12.9,30.11,North,6,20.0,22.0,12,0.00,,,0.00,605,WeatherHawk,2013-01-21 18:38:00,
2013-01-21 11:42:00,67.3,12.9,30.11,North,355,15.0,22.0,12,0.00,,,0.00,619,WeatherHawk,2013-01-21 18:42:00,
2013-01-21 11:45:00,67.3,12.9,30.11,NNW,348,18.0,22.0,12,0.00,,,0.00,622,WeatherHawk,2013-01-21 18:45:00,
2013-01-21 11:46:00,67.3,14.8,30.11,North,355,16.0,22.0,13,0.00,,,0.00,625,WeatherHawk,2013-01-21 18:46:00,
2013-01-21 11:47:00,67.5,14.9,30.11,NNW,347,13.0,-999.0,13,0.00,,,0.00,622,WeatherHawk,2013-01-21 18:47:00,
2013-01-21 11:52:00,67.8,13.4,30.11,North,351,16.0,23.0,12,0.00,,,0.00,626,WeatherHawk,2013-01-21 18:52:00,
2013-01-21 11:53:00,67.8,13.4,30.11,North,354,17.0,23.0,12,0.00,,,0.00,634,WeatherHawk,2013-01-21 18:53:00,
2013-01-21 11:56:00,68.0,13.5,30.11,North,0,17.0,23.0,12,0.00,,,0.00,634,WeatherHawk,2013-01-21 18:56:00,
2013-01-21 11:58:00,68.0,13.5,30.11,North,358,19.0,21.0,12,0.00,,,0.00,636,WeatherHawk,2013-01-21 18:58:00,
2013-01-21 12:00:00,68.2,13.7,30.11,North,7,19.0,21.0,12,0.00,,,0.00,642,WeatherHawk,2013-01-21 19:00:00,
2013-01-21 12:01:00,68.2,13.7,30.11,North,4,17.0,21.0,12,0.00,,,0.00,642,WeatherHawk,2013-01-21 19:01:00,
2013-01-21 12:02:00,68.2,13.7,30.11,North,4,17.0,-999.0,12,0.00,,,0.00,642,WeatherHawk,2013-01-21 19:02:00,
2013-01-21 12:07:00,68.9,14.2,30.11,North,351,14.0,21.0,12,0.00,,,0.00,646,WeatherHawk,2013-01-21 19:07:00,
2013-01-21 12:08:00,68.9,14.2,30.11,North,353,16.0,21.0,12,0.00,,,0.00,648,WeatherHawk,2013-01-21 19:08:00,
2013-01-21 12:12:00,68.7,12.1,30.11,North,0,16.0,-999.0,11,0.00,,,0.00,652,WeatherHawk,2013-01-21 19:12:00,
2013-01-21 12:15:00,69.1,16.2,30.11,North,351,15.0,21.0,13,0.00,,,0.00,652,WeatherHawk,2013-01-21 19:15:00,
2013-01-21 12:17:00,69.4,14.6,30.11,North,352,15.0,-999.0,12,0.00,,,0.00,656,WeatherHawk,2013-01-21 19:17:00,
2013-01-21 12:19:00,69.4,14.6,30.11,NNW,348,15.0,19.0,12,0.00,,,0.00,656,WeatherHawk,2013-01-21 19:19:00,
2013-01-21 12:22:00,69.3,16.3,30.11,North,351,14.0,19.0,13,0.00,,,0.00,657,WeatherHawk,2013-01-21 19:22:00,
2013-01-21 12:25:00,69.3,14.5,30.10,NNW,336,16.0,19.0,12,0.00,,,0.00,660,WeatherHawk,2013-01-21 19:25:00,
2013-01-21 12:27:00,69.4,14.6,30.10,NNW,342,14.0,19.0,12,0.00,,,0.00,660,WeatherHawk,2013-01-21 19:27:00,
2013-01-21 12:30:00,69.1,14.4,30.10,North,357,16.0,20.0,12,0.00,,,0.00,662,WeatherHawk,2013-01-21 19:30:00,
2013-01-21 12:32:00,68.9,14.2,30.10,NNW,343,15.0,20.0,12,0.00,,,0.00,661,WeatherHawk,2013-01-21 19:32:00,
2013-01-21 12:37:00,69.3,16.3,30.10,NNW,342,15.0,20.0,13,0.00,,,0.00,663,WeatherHawk,2013-01-21 19:37:00,
2013-01-21 12:38:00,69.3,12.5,30.10,North,354,17.0,21.0,11,0.00,,,0.00,666,WeatherHawk,2013-01-21 19:38:00,
2013-01-21 12:42:00,69.4,12.7,30.10,NNW,344,19.0,21.0,11,0.00,,,0.00,668,WeatherHawk,2013-01-21 19:42:00,
2013-01-21 12:43:00,69.4,12.7,30.10,NNW,335,17.0,21.0,11,0.00,,,0.00,666,WeatherHawk,2013-01-21 19:43:00,
2013-01-21 12:47:00,69.4,14.6,30.10,NNW,341,15.0,-999.0,12,0.00,,,0.00,667,WeatherHawk,2013-01-21 19:47:00,
2013-01-21 12:51:00,69.6,12.8,30.09,North,355,14.0,22.0,11,0.00,,,0.00,667,WeatherHawk,2013-01-21 19:51:00,
2013-01-21 12:52:00,69.6,12.8,30.09,North,355,14.0,22.0,11,0.00,,,0.00,667,WeatherHawk,2013-01-21 19:52:00,
2013-01-21 12:54:00,69.8,12.9,30.09,North,352,17.0,22.0,11,0.00,,,0.00,665,WeatherHawk,2013-01-21 19:54:00,
2013-01-21 12:57:00,70.0,13.1,30.09,NNW,348,17.0,22.0,11,0.00,,,0.00,663,WeatherHawk,2013-01-21 19:57:00,
2013-01-21 12:59:00,70.0,13.1,30.09,North,357,18.0,20.0,11,0.00,,,0.00,668,WeatherHawk,2013-01-21 19:59:00,
2013-01-21 13:03:00,70.2,13.2,30.09,North,1,15.0,20.0,11,0.00,,,0.00,666,WeatherHawk,2013-01-21 20:03:00,
2013-01-21 13:04:00,70.2,13.2,30.09,NNW,345,14.0,20.0,11,0.00,,,0.00,665,WeatherHawk,2013-01-21 20:04:00,
2013-01-21 13:05:00,70.0,15.1,30.09,NNW,344,18.0,20.0,12,0.00,,,0.00,665,WeatherHawk,2013-01-21 20:05:00,
2013-01-21 13:08:00,69.8,14.9,30.09,NNW,344,15.0,21.0,12,0.00,,,0.00,663,WeatherHawk,2013-01-21 20:08:00,
2013-01-21 13:09:00,69.8,14.9,30.09,NNW,347,17.0,21.0,12,0.00,,,0.00,663,WeatherHawk,2013-01-21 20:09:00,
2013-01-21 13:11:00,70.0,15.1,30.09,NNW,342,14.0,21.0,12,0.00,,,0.00,664,WeatherHawk,2013-01-21 20:11:00,
2013-01-21 13:12:00,70.0,15.1,30.09,NNW,342,14.0,21.0,12,0.00,,,0.00,664,WeatherHawk,2013-01-21 20:12:00,
2013-01-21 13:14:00,70.2,15.2,30.09,NNW,334,15.0,21.0,12,0.00,,,0.00,660,WeatherHawk,2013-01-21 20:14:00,
2013-01-21 13:17:00,70.2,15.2,30.09,NNW,341,14.0,21.0,12,0.00,,,0.00,655,WeatherHawk,2013-01-21 20:17:00,
2013-01-21 13:18:00,70.3,17.2,30.08,NNW,337,13.0,20.0,13,0.00,,,0.00,658,WeatherHawk,2013-01-21 20:18:00,
2013-01-21 13:21:00,70.7,13.6,30.08,NNW,345,15.0,20.0,11,0.00,,,0.00,658,WeatherHawk,2013-01-21 20:21:00,
2013-01-21 13:22:00,70.5,15.5,30.08,NNW,339,13.0,20.0,12,0.00,,,0.00,656,WeatherHawk,2013-01-21 20:22:00,
2013-01-21 13:24:00,70.5,13.5,30.08,NNW,343,10.0,20.0,11,0.00,,,0.00,653,WeatherHawk,2013-01-21 20:24:00,
2013-01-21 13:27:00,70.7,15.6,30.08,NNW,340,14.0,-999.0,12,0.00,,,0.00,655,WeatherHawk,2013-01-21 20:27:00,
2013-01-21 13:28:00,70.7,13.6,30.08,North,352,18.0,20.0,11,0.00,,,0.00,655,WeatherHawk,2013-01-21 20:28:00,
2013-01-21 13:32:00,70.7,15.6,30.08,NNW,339,17.0,-999.0,12,0.00,,,0.00,653,WeatherHawk,2013-01-21 20:32:00,
2013-01-21 13:34:00,70.9,13.8,30.08,North,351,16.0,20.0,11,0.00,,,0.00,649,WeatherHawk,2013-01-21 20:34:00,
2013-01-21 13:37:00,70.9,13.8,30.08,NNW,346,13.0,20.0,11,0.00,,,0.00,648,WeatherHawk,2013-01-21 20:37:00,
2013-01-21 13:40:00,70.7,13.6,30.07,NNW,347,19.0,19.0,11,0.00,,,0.00,648,WeatherHawk,2013-01-21 20:40:00,
2013-01-21 13:42:00,70.9,15.8,30.07,NNW,342,18.0,-999.0,12,0.00,,,0.00,641,WeatherHawk,2013-01-21 20:42:00,
2013-01-21 13:46:00,70.9,13.8,30.07,NNW,341,19.0,19.0,11,0.00,,,0.00,638,WeatherHawk,2013-01-21 20:46:00,
2013-01-21 13:47:00,70.9,13.8,30.07,NNW,341,19.0,19.0,11,0.00,,,0.00,638,WeatherHawk,2013-01-21 20:47:00,
2013-01-21 13:49:00,70.9,15.8,30.07,NNW,347,12.0,21.0,12,0.00,,,0.00,636,WeatherHawk,2013-01-21 20:49:00,
2013-01-21 13:52:00,71.6,14.3,30.07,North,352,13.0,21.0,11,0.00,,,0.00,632,WeatherHawk,2013-01-21 20:52:00,
2013-01-21 13:56:00,71.4,14.2,30.07,North,354,17.0,21.0,11,0.00,,,0.00,625,WeatherHawk,2013-01-21 20:56:00,
2013-01-21 13:57:00,71.4,14.2,30.07,North,354,17.0,-999.0,11,0.00,,,0.00,625,WeatherHawk,2013-01-21 20:57:00,
2013-01-21 13:59:00,71.4,14.2,30.07,North,358,16.0,0.0,11,0.00,,,0.00,622,WeatherHawk,2013-01-21 20:59:00,
2013-01-21 14:02:00,71.2,14.0,30.07,North,353,13.0,-999.0,11,0.00,,,0.00,620,WeatherHawk,2013-01-21 21:02:00,
2013-01-21 14:05:00,71.4,14.2,30.07,North,352,13.0,0.0,11,0.00,,,0.00,616,WeatherHawk,2013-01-21 21:05:00,
2013-01-21 14:08:00,71.4,14.2,30.07,North,359,13.0,19.0,11,0.00,,,0.00,612,WeatherHawk,2013-01-21 21:08:00,
2013-01-21 14:11:00,71.8,14.5,30.06,NNW,345,15.0,19.0,11,0.00,,,0.00,607,WeatherHawk,2013-01-21 21:11:00,
2013-01-21 14:12:00,71.8,14.5,30.06,NNW,345,15.0,19.0,11,0.00,,,0.00,607,WeatherHawk,2013-01-21 21:12:00,
2013-01-21 14:13:00,71.8,14.5,30.06,NNW,345,15.0,19.0,11,0.00,,,0.00,596,WeatherHawk,2013-01-21 21:13:00,
2013-01-21 14:16:00,71.8,14.5,30.06,North,353,18.0,19.0,11,0.00,,,0.00,599,WeatherHawk,2013-01-21 21:16:00,
2013-01-21 14:17:00,71.8,14.5,30.06,North,351,17.0,19.0,11,0.00,,,0.00,599,WeatherHawk,2013-01-21 21:17:00,
2013-01-21 14:20:00,72.0,14.6,30.06,NNW,347,19.0,19.0,11,0.00,,,0.00,592,WeatherHawk,2013-01-21 21:20:00,
2013-01-21 14:22:00,71.8,14.5,30.06,NNW,345,15.0,19.0,11,0.00,,,0.00,591,WeatherHawk,2013-01-21 21:22:00,
2013-01-21 14:24:00,72.0,14.6,30.06,NNW,348,16.0,19.0,11,0.00,,,0.00,587,WeatherHawk,2013-01-21 21:24:00,
2013-01-21 14:26:00,72.0,14.6,30.06,North,350,18.0,19.0,11,0.00,,,0.00,583,WeatherHawk,2013-01-21 21:26:00,
2013-01-21 14:27:00,72.0,14.6,30.06,North,352,15.0,19.0,11,0.00,,,0.00,581,WeatherHawk,2013-01-21 21:27:00,
2013-01-21 14:30:00,72.0,14.6,30.06,North,358,14.0,21.0,11,0.00,,,0.00,573,WeatherHawk,2013-01-21 21:30:00,
2013-01-21 14:31:00,72.0,14.6,30.06,NNW,345,13.0,21.0,11,0.00,,,0.00,574,WeatherHawk,2013-01-21 21:31:00,
2013-01-21 14:33:00,72.1,14.7,30.06,North,3,13.0,21.0,11,0.00,,,0.00,569,WeatherHawk,2013-01-21 21:33:00,
2013-01-21 14:37:00,72.3,14.9,30.06,North,357,13.0,-999.0,11,0.00,,,0.00,566,WeatherHawk,2013-01-21 21:37:00,
2013-01-21 14:39:00,72.3,14.9,30.06,North,351,14.0,19.0,11,0.00,,,0.00,557,WeatherHawk,2013-01-21 21:39:00,
2013-01-21 14:40:00,72.5,15.0,30.06,North,1,17.0,19.0,11,0.00,,,0.00,554,WeatherHawk,2013-01-21 21:40:00,
2013-01-21 14:44:00,72.5,15.0,30.06,NNW,338,15.0,19.0,11,0.00,,,0.00,546,WeatherHawk,2013-01-21 21:44:00,
2013-01-21 14:45:00,72.5,15.0,30.06,North,351,16.0,19.0,11,0.00,,,0.00,544,WeatherHawk,2013-01-21 21:45:00,
2013-01-21 14:46:00,72.7,15.2,30.06,NNW,336,19.0,19.0,11,0.00,,,0.00,542,WeatherHawk,2013-01-21 21:46:00,
2013-01-21 14:47:00,72.7,15.2,30.06,NNW,336,19.0,-999.0,11,0.00,,,0.00,542,WeatherHawk,2013-01-21 21:47:00,
2013-01-21 14:51:00,72.5,15.0,30.06,NNW,343,18.0,20.0,11,0.00,,,0.00,531,WeatherHawk,2013-01-21 21:51:00,
2013-01-21 14:52:00,72.5,15.0,30.06,NNW,343,18.0,20.0,11,0.00,,,0.00,531,WeatherHawk,2013-01-21 21:52:00,
2013-01-21 14:57:00,72.5,15.0,30.06,NNW,340,17.0,20.0,11,0.00,,,0.00,521,WeatherHawk,2013-01-21 21:57:00,
2013-01-21 14:59:00,72.5,15.0,30.06,NNW,345,20.0,20.0,11,0.00,,,0.00,515,WeatherHawk,2013-01-21 21:59:00,
2013-01-21 15:00:00,72.5,15.0,30.05,North,358,17.0,20.0,11,0.00,,,0.00,512,WeatherHawk,2013-01-21 22:00:00,
2013-01-21 15:05:00,72.9,13.1,30.05,North,350,15.0,20.0,10,0.00,,,0.00,501,WeatherHawk,2013-01-21 22:05:00,
2013-01-21 15:07:00,72.9,13.1,30.05,North,358,17.0,-999.0,10,0.00,,,0.00,499,WeatherHawk,2013-01-21 22:07:00,
2013-01-21 15:12:00,72.9,13.1,30.05,North,4,14.0,-999.0,10,0.00,,,0.00,486,WeatherHawk,2013-01-21 22:12:00,
2013-01-21 15:13:00,73.0,13.3,30.05,North,349,16.0,21.0,10,0.00,,,0.00,482,WeatherHawk,2013-01-21 22:13:00,
2013-01-21 15:16:00,73.0,13.3,30.05,North,358,17.0,-999.0,10,0.00,,,0.00,475,WeatherHawk,2013-01-21 22:16:00,
2013-01-21 15:19:00,73.0,13.3,30.05,North,358,15.0,19.0,10,0.00,,,0.00,467,WeatherHawk,2013-01-21 22:19:00,
2013-01-21 15:20:00,73.0,13.3,30.05,North,358,17.0,19.0,10,0.00,,,0.00,464,WeatherHawk,2013-01-21 22:20:00,
2013-01-21 15:21:00,72.9,13.1,30.05,North,356,17.0,19.0,10,0.00,,,0.00,460,WeatherHawk,2013-01-21 22:21:00,
2013-01-21 15:24:00,73.0,13.3,30.04,North,354,17.0,19.0,10,0.00,,,0.00,451,WeatherHawk,2013-01-21 22:24:00,
2013-01-21 15:25:00,73.0,13.3,30.04,North,356,14.0,19.0,10,0.00,,,0.00,449,WeatherHawk,2013-01-21 22:25:00,
2013-01-21 15:27:00,73.2,15.6,30.04,North,354,15.0,0.0,11,0.00,,,0.00,444,WeatherHawk,2013-01-21 22:27:00,
2013-01-21 15:30:00,73.2,13.4,30.04,North,355,17.0,18.0,10,0.00,,,0.00,436,WeatherHawk,2013-01-21 22:30:00,
2013-01-21 15:31:00,73.2,13.4,30.04,North,359,14.0,-999.0,10,0.00,,,0.00,433,WeatherHawk,2013-01-21 22:31:00,
2013-01-21 15:32:00,73.2,13.4,30.04,North,355,12.0,18.0,10,0.00,,,0.00,431,WeatherHawk,2013-01-21 22:32:00,
2013-01-21 15:35:00,73.2,13.4,30.04,NNW,348,16.0,18.0,10,0.00,,,0.00,422,WeatherHawk,2013-01-21 22:35:00,
2013-01-21 15:36:00,73.2,13.4,30.04,North,357,13.0,-999.0,10,0.00,,,0.00,419,WeatherHawk,2013-01-21 22:36:00,
2013-01-21 15:39:00,73.4,13.5,30.04,North,359,14.0,17.0,10,0.00,,,0.00,409,WeatherHawk,2013-01-21 22:39:00,
2013-01-21 15:40:00,73.2,13.4,30.04,NNW,346,13.0,17.0,10,0.00,,,0.00,409,WeatherHawk,2013-01-21 22:40:00,
2013-01-21 15:41:00,73.2,13.4,30.04,NNW,346,13.0,17.0,10,0.00,,,0.00,409,WeatherHawk,2013-01-21 22:41:00,
2013-01-21 15:46:00,73.4,13.5,30.04,North,2,12.0,17.0,10,0.00,,,0.00,392,WeatherHawk,2013-01-21 22:46:00,
2013-01-21 15:47:00,73.6,13.7,30.04,North,358,13.0,0.0,10,0.00,,,0.00,389,WeatherHawk,2013-01-21 22:47:00,
2013-01-21 15:48:00,73.6,13.7,30.04,North,0,15.0,17.0,10,0.00,,,0.00,384,WeatherHawk,2013-01-21 22:48:00,
2013-01-21 15:51:00,73.6,13.7,30.04,North,354,13.0,-999.0,10,0.00,,,0.00,379,WeatherHawk,2013-01-21 22:51:00,
2013-01-21 15:52:00,73.6,13.7,30.04,North,351,14.0,17.0,10,0.00,,,0.00,375,WeatherHawk,2013-01-21 22:52:00,
2013-01-21 15:54:00,73.4,13.5,30.04,North,6,12.0,17.0,10,0.00,,,0.00,366,WeatherHawk,2013-01-21 22:54:00,
2013-01-21 15:58:00,73.6,13.7,30.04,North,2,13.0,18.0,10,0.00,,,0.00,357,WeatherHawk,2013-01-21 22:58:00,
2013-01-21 16:01:00,73.8,13.8,30.04,North,356,13.0,18.0,10,0.00,,,0.00,349,WeatherHawk,2013-01-21 23:01:00,
2013-01-21 16:03:00,73.8,16.0,30.04,North,359,9.0,18.0,11,0.00,,,0.00,338,WeatherHawk,2013-01-21 23:03:00,
2013-01-21 16:06:00,73.8,13.8,30.04,North,350,13.0,18.0,10,0.00,,,0.00,331,WeatherHawk,2013-01-21 23:06:00,
2013-01-21 16:08:00,73.6,13.7,30.03,North,2,12.0,0.0,10,0.00,,,0.00,324,WeatherHawk,2013-01-21 23:08:00,
2013-01-21 16:11:00,73.4,15.7,30.03,North,354,14.0,0.0,11,0.00,,,0.00,315,WeatherHawk,2013-01-21 23:11:00,
2013-01-21 16:13:00,73.4,13.5,30.03,North,3,16.0,0.0,10,0.00,,,0.00,310,WeatherHawk,2013-01-21 23:13:00,
2013-01-21 16:18:00,73.4,13.5,30.03,North,357,16.0,17.0,10,0.00,,,0.00,296,WeatherHawk,2013-01-21 23:18:00,
2013-01-21 16:19:00,73.4,13.5,30.04,North,4,14.0,17.0,10,0.00,,,0.00,289,WeatherHawk,2013-01-21 23:19:00,
2013-01-21 16:21:00,73.4,15.7,30.04,North,353,13.0,17.0,11,0.00,,,0.00,284,WeatherHawk,2013-01-21 23:21:00,
2013-01-21 16:23:00,73.4,15.7,30.03,North,2,11.0,17.0,11,0.00,,,0.00,278,WeatherHawk,2013-01-21 23:23:00,
2013-01-21 16:26:00,73.4,15.7,30.03,North,0,10.0,-999.0,11,0.00,,,0.00,272,WeatherHawk,2013-01-21 23:26:00,
2013-01-21 16:27:00,73.4,15.7,30.03,North,5,11.0,17.0,11,0.00,,,0.00,263,WeatherHawk,2013-01-21 23:27:00,
2013-01-21 16:28:00,73.4,15.7,30.03,North,0,10.0,17.0,11,0.00,,,0.00,262,WeatherHawk,2013-01-21 23:28:00,
2013-01-21 16:31:00,73.4,13.5,30.03,North,359,15.0,17.0,10,0.00,,,0.00,253,WeatherHawk,2013-01-21 23:31:00,
2013-01-21 16:33:00,73.2,15.6,30.03,North,359,10.0,17.0,11,0.00,,,0.00,246,WeatherHawk,2013-01-21 23:33:00,
2013-01-21 16:36:00,73.2,13.4,30.03,North,358,15.0,-999.0,10,0.00,,,0.00,239,WeatherHawk,2013-01-21 23:36:00,
2013-01-21 16:37:00,73.2,13.4,30.03,North,6,13.0,17.0,10,0.00,,,0.00,235,WeatherHawk,2013-01-21 23:37:00,
2013-01-21 16:38:00,73.2,13.4,30.03,North,3,12.0,17.0,10,0.00,,,0.00,231,WeatherHawk,2013-01-21 23:38:00,
2013-01-21 16:43:00,73.2,15.6,30.03,North,2,12.0,17.0,11,0.00,,,0.00,217,WeatherHawk,2013-01-21 23:43:00,
2013-01-21 16:44:00,73.2,13.4,30.03,North,2,11.0,17.0,10,0.00,,,0.00,212,WeatherHawk,2013-01-21 23:44:00,
2013-01-21 16:45:00,73.2,15.6,30.03,North,3,16.0,17.0,11,0.00,,,0.00,209,WeatherHawk,2013-01-21 23:45:00,
2013-01-21 16:48:00,73.0,15.4,30.03,North,10,11.0,0.0,11,0.00,,,0.00,201,WeatherHawk,2013-01-21 23:48:00,
2013-01-21 16:49:00,72.9,15.3,30.03,North,1,13.0,0.0,11,0.00,,,0.00,197,WeatherHawk,2013-01-21 23:49:00,
2013-01-21 16:51:00,72.9,15.3,30.03,North,9,11.0,0.0,11,0.00,,,0.00,192,WeatherHawk,2013-01-21 23:51:00,
2013-01-21 16:56:00,72.7,15.2,30.03,North,358,9.0,0.0,11,0.00,,,0.00,178,WeatherHawk,2013-01-21 23:56:00,
2013-01-21 16:57:00,72.7,15.2,30.03,North,8,10.0,0.0,11,0.00,,,0.00,167,WeatherHawk,2013-01-21 23:57:00,
2013-01-21 16:59:00,72.7,17.2,30.03,North,4,8.0,0.0,12,0.00,,,0.00,167,WeatherHawk,2013-01-21 23:59:00,
2013-01-21 17:00:00,72.7,17.2,30.03,North,5,9.0,0.0,12,0.00,,,0.00,162,WeatherHawk,2013-01-22 00:00:00,
2013-01-21 17:04:00,72.3,16.9,30.03,North,10,9.0,0.0,12,0.00,,,0.00,151,WeatherHawk,2013-01-22 00:04:00,
2013-01-21 17:05:00,72.3,18.7,30.03,North,7,9.0,0.0,13,0.00,,,0.00,148,WeatherHawk,2013-01-22 00:05:00,
2013-01-21 17:06:00,72.3,18.7,30.03,North,7,9.0,0.0,13,0.00,,,0.00,148,WeatherHawk,2013-01-22 00:06:00,
2013-01-21 17:09:00,72.1,18.6,30.03,North,10,11.0,0.0,13,0.00,,,0.00,136,WeatherHawk,2013-01-22 00:09:00,
2013-01-21 17:11:00,72.0,16.6,30.03,North,5,12.0,-999.0,12,0.00,,,0.00,131,WeatherHawk,2013-01-22 00:11:00,
2013-01-21 17:12:00,72.0,18.4,30.03,NNE,14,10.0,0.0,13,0.00,,,0.00,127,WeatherHawk,2013-01-22 00:12:00,
2013-01-21 17:15:00,71.8,16.5,30.03,North,7,11.0,0.0,12,0.00,,,0.00,119,WeatherHawk,2013-01-22 00:15:00,
2013-01-21 17:16:00,71.8,16.5,30.03,North,11,11.0,0.0,12,0.00,,,0.00,117,WeatherHawk,2013-01-22 00:16:00,
2013-01-21 17:18:00,71.8,16.5,30.03,North,5,12.0,13.0,12,0.00,,,0.00,112,WeatherHawk,2013-01-22 00:18:00,
2013-01-21 17:19:00,71.6,18.2,30.03,North,6,10.0,13.0,13,0.00,,,0.00,108,WeatherHawk,2013-01-22 00:19:00,
2013-01-21 17:21:00,71.6,16.3,30.03,North,9,10.0,13.0,12,0.00,,,0.00,106,WeatherHawk,2013-01-22 00:21:00,
2013-01-21 17:26:00,71.2,16.0,30.03,North,10,11.0,13.0,12,0.00,,,0.00,91,WeatherHawk,2013-01-22 00:26:00,
2013-01-21 17:28:00,71.1,17.7,30.03,North,9,9.0,0.0,13,0.00,,,0.00,85,WeatherHawk,2013-01-22 00:28:00,
2013-01-21 17:31:00,70.9,17.6,30.03,NNE,12,9.0,0.0,13,0.00,,,0.00,76,WeatherHawk,2013-01-22 00:31:00,
2013-01-21 17:32:00,70.9,17.6,30.03,NNE,13,11.0,0.0,13,0.00,,,0.00,75,WeatherHawk,2013-01-22 00:32:00,
2013-01-21 17:36:00,70.7,17.5,30.03,NNE,13,10.0,-999.0,13,0.00,,,0.00,66,WeatherHawk,2013-01-22 00:36:00,
2013-01-21 17:37:00,70.5,15.5,30.03,North,9,12.0,0.0,12,0.00,,,0.00,63,WeatherHawk,2013-01-22 00:37:00,
2013-01-21 17:41:00,70.5,17.3,30.03,North,9,11.0,12.0,13,0.00,,,0.00,51,WeatherHawk,2013-01-22 00:41:00,
2013-01-21 17:42:00,70.3,17.2,30.03,North,8,13.0,13.0,13,0.00,,,0.00,49,WeatherHawk,2013-01-22 00:42:00,
2013-01-21 17:44:00,70.3,17.2,30.03,North,8,12.0,12.0,13,0.00,,,0.00,43,WeatherHawk,2013-01-22 00:44:00,
2013-01-21 17:46:00,70.2,17.0,30.03,North,9,12.0,12.0,13,0.00,,,0.00,38,WeatherHawk,2013-01-22 00:46:00,
2013-01-21 17:50:00,69.8,16.7,30.03,North,7,9.0,0.0,13,0.00,,,0.00,32,WeatherHawk,2013-01-22 00:50:00,
2013-01-21 17:51:00,69.6,16.6,30.03,NNE,14,10.0,0.0,13,0.00,,,0.00,30,WeatherHawk,2013-01-22 00:51:00,
2013-01-21 17:56:00,69.3,16.3,30.03,North,10,10.0,0.0,13,0.00,,,0.00,17,WeatherHawk,2013-01-22 00:56:00,
2013-01-21 17:57:00,69.1,16.2,30.03,NNE,12,10.0,0.0,13,0.00,,,0.00,13,WeatherHawk,2013-01-22 00:57:00,
2013-01-21 18:00:00,68.9,16.0,30.03,NNE,13,11.0,12.0,13,0.00,,,0.00,5,WeatherHawk,2013-01-22 01:00:00,
2013-01-21 18:01:00,68.9,16.0,30.03,NNE,13,11.0,-999.0,13,0.00,,,0.00,5,WeatherHawk,2013-01-22 01:01:00,
2013-01-21 18:06:00,68.5,17.5,30.03,NNE,15,9.0,12.0,14,0.00,,,0.00,0,WeatherHawk,2013-01-22 01:06:00,
2013-01-21 18:08:00,68.4,17.3,30.03,NNE,14,9.0,0.0,14,0.00,,,0.00,1,WeatherHawk,2013-01-22 01:08:00,
2013-01-21 18:11:00,68.4,15.6,30.03,NNE,13,9.0,-999.0,13,0.00,,,0.00,1,WeatherHawk,2013-01-22 01:11:00,
2013-01-21 18:12:00,68.4,15.6,30.03,North,11,11.0,0.0,13,0.00,,,0.00,3,WeatherHawk,2013-01-22 01:12:00,
2013-01-21 18:14:00,68.2,15.5,30.03,NNE,15,10.0,0.0,13,0.00,,,0.00,1,WeatherHawk,2013-01-22 01:14:00,
2013-01-21 18:16:00,68.2,15.5,30.03,NNE,18,8.0,0.0,13,0.00,,,0.00,0,WeatherHawk,2013-01-22 01:16:00,
2013-01-21 18:18:00,68.0,15.3,30.03,NNE,20,7.0,11.0,13,0.00,,,0.00,0,WeatherHawk,2013-01-22 01:18:00,
2013-01-21 18:19:00,67.8,15.2,30.03,NNE,25,7.0,11.0,13,0.00,,,0.00,0,WeatherHawk,2013-01-22 01:19:00,
2013-01-21 18:20:00,67.8,15.2,30.03,NNE,22,8.0,11.0,13,0.00,,,0.00,0,WeatherHawk,2013-01-22 01:20:00,
2013-01-21 18:23:00,67.5,16.6,30.03,NNE,30,7.0,11.0,14,0.00,,,0.00,0,WeatherHawk,2013-01-22 01:23:00,
2013-01-21 18:25:00,67.1,17.9,30.04,NNE,31,7.0,11.0,15,0.00,,,0.00,0,WeatherHawk,2013-01-22 01:25:00,
2013-01-21 18:26:00,66.9,17.8,30.04,NNE,29,8.0,-999.0,15,0.00,,,0.00,0,WeatherHawk,2013-01-22 01:26:00,
2013-01-21 18:29:00,66.4,17.3,30.04,NNE,24,8.0,0.0,15,0.00,,,0.00,0,WeatherHawk,2013-01-22 01:29:00,
2013-01-21 18:31:00,66.6,15.9,30.04,NNE,29,7.0,0.0,14,0.00,,,0.00,0,WeatherHawk,2013-01-22 01:31:00,
2013-01-21 18:32:00,66.6,15.9,30.04,NNE,20,8.0,0.0,14,0.00,,,0.00,0,WeatherHawk,2013-01-22 01:32:00,
2013-01-21 18:35:00,66.9,16.2,30.04,NNE,12,7.0,0.0,14,0.00,,,0.00,0,WeatherHawk,2013-01-22 01:35:00,
2013-01-21 18:36:00,67.1,14.6,30.04,NNE,16,9.0,-999.0,13,0.00,,,0.00,0,WeatherHawk,2013-01-22 01:36:00,
2013-01-21 18:40:00,67.5,16.6,30.04,North,9,10.0,0.0,14,0.00,,,0.00,0,WeatherHawk,2013-01-22 01:40:00,
2013-01-21 18:41:00,67.5,16.6,30.04,North,9,10.0,0.0,14,0.00,,,0.00,0,WeatherHawk,2013-01-22 01:41:00,
2013-01-21 18:42:00,67.5,16.6,30.04,NNE,17,10.0,0.0,14,0.00,,,0.00,0,WeatherHawk,2013-01-22 01:42:00,
2013-01-21 18:45:00,67.5,16.6,30.04,NNE,16,11.0,0.0,14,0.00,,,0.00,0,WeatherHawk,2013-01-22 01:45:00,
2013-01-21 18:46:00,67.3,16.5,30.04,NNE,12,11.0,0.0,14,0.00,,,0.00,0,WeatherHawk,2013-01-22 01:46:00,
2013-01-21 18:50:00,67.3,16.5,30.04,North,7,8.0,0.0,14,0.00,,,0.00,0,WeatherHawk,2013-01-22 01:50:00,
2013-01-21 18:51:00,67.3,16.5,30.04,North,8,9.0,0.0,14,0.00,,,0.00,0,WeatherHawk,2013-01-22 01:51:00,
2013-01-21 18:55:00,67.1,16.3,30.04,North,6,9.0,0.0,14,0.00,,,0.00,0,WeatherHawk,2013-01-22 01:55:00,
2013-01-21 18:56:00,67.1,16.3,30.04,North,7,8.0,0.0,14,0.00,,,0.00,0,WeatherHawk,2013-01-22 01:56:00,
2013-01-21 18:57:00,67.3,16.5,30.04,North,7,9.0,-999.0,14,0.00,,,0.00,0,WeatherHawk,2013-01-22 01:57:00,
2013-01-21 19:01:00,67.3,16.5,30.04,North,9,9.0,10.0,14,0.00,,,0.00,0,WeatherHawk,2013-01-22 02:01:00,
2013-01-21 19:02:00,67.3,16.5,30.04,North,9,9.0,-999.0,14,0.00,,,0.00,0,WeatherHawk,2013-01-22 02:02:00,
2013-01-21 19:05:00,67.1,16.3,30.04,North,5,8.0,10.0,14,0.00,,,0.00,0,WeatherHawk,2013-01-22 02:05:00,
2013-01-21 19:06:00,66.9,16.2,30.04,North,5,9.0,10.0,14,0.00,,,0.00,0,WeatherHawk,2013-01-22 02:06:00,
2013-01-21 19:07:00,66.9,16.2,30.04,North,5,9.0,-999.0,14,0.00,,,0.00,0,WeatherHawk,2013-01-22 02:07:00,
2013-01-21 19:09:00,66.7,16.0,30.04,North,358,8.0,11.0,14,0.00,,,0.00,0,WeatherHawk,2013-01-22 02:09:00,
2013-01-21 19:11:00,66.9,16.2,30.04,North,8,7.0,11.0,14,0.00,,,0.00,0,WeatherHawk,2013-01-22 02:11:00,
2013-01-21 19:12:00,66.9,16.2,30.04,North,8,7.0,11.0,14,0.00,,,0.00,0,WeatherHawk,2013-01-22 02:12:00,
2013-01-21 19:13:00,66.7,16.0,30.04,North,5,8.0,11.0,14,0.00,,,0.00,0,WeatherHawk,2013-01-22 02:13:00,
2013-01-21 19:15:00,66.6,15.9,30.04,North,4,7.0,11.0,14,0.00,,,0.00,0,WeatherHawk,2013-01-22 02:15:00,
2013-01-21 19:19:00,66.4,15.8,30.04,North,6,7.0,9.0,14,0.00,,,0.00,0,WeatherHawk,2013-01-22 02:19:00,
2013-01-21 19:20:00,66.2,15.6,30.04,North,5,8.0,9.0,14,0.00,,,0.00,0,WeatherHawk,2013-01-22 02:20:00,
2013-01-21 19:21:00,66.2,15.6,30.04,North,5,8.0,9.0,14,0.00,,,0.00,0,WeatherHawk,2013-01-22 02:21:00,
2013-01-21 19:25:00,66.0,15.5,30.04,North,3,8.0,9.0,14,0.00,,,0.00,0,WeatherHawk,2013-01-22 02:25:00,
2013-01-21 19:27:00,66.0,15.5,30.04,North,4,8.0,9.0,14,0.00,,,0.00,0,WeatherHawk,2013-01-22 02:27:00,
2013-01-21 19:31:00,65.7,16.8,30.04,North,7,7.0,9.0,15,0.00,,,0.00,0,WeatherHawk,2013-01-22 02:31:00,
2013-01-21 19:32:00,65.7,16.8,30.04,North,7,7.0,-999.0,15,0.00,,,0.00,0,WeatherHawk,2013-01-22 02:32:00,
2013-01-21 19:35:00,65.3,16.5,30.04,North,4,7.0,9.0,15,0.00,,,0.00,0,WeatherHawk,2013-01-22 02:35:00,
2013-01-21 19:37:00,65.3,16.5,30.04,North,4,7.0,9.0,15,0.00,,,0.00,0,WeatherHawk,2013-01-22 02:37:00,
2013-01-21 19:40:00,65.3,16.5,30.04,North,5,7.0,9.0,15,0.00,,,0.00,0,WeatherHawk,2013-01-22 02:40:00,
2013-01-21 19:42:00,65.1,16.3,30.04,North,2,7.0,9.0,15,0.00,,,0.00,0,WeatherHawk,2013-01-22 02:42:00,
2013-01-21 19:43:00,65.1,16.3,30.04,North,6,7.0,9.0,15,0.00,,,0.00,0,WeatherHawk,2013-01-22 02:43:00,
2013-01-21 19:45:00,65.1,16.3,30.04,North,7,7.0,9.0,15,0.00,,,0.00,0,WeatherHawk,2013-01-22 02:45:00,
2013-01-21 19:47:00,65.1,16.3,30.04,North,8,7.0,9.0,15,0.00,,,0.00,0,WeatherHawk,2013-01-22 02:47:00,
2013-01-21 19:48:00,65.1,16.3,30.04,North,7,7.0,9.0,15,0.00,,,0.00,0,WeatherHawk,2013-01-22 02:48:00,
2013-01-21 19:52:00,64.9,16.2,30.04,North,2,6.0,-999.0,15,0.00,,,0.00,0,WeatherHawk,2013-01-22 02:52:00,
2013-01-21 19:53:00,64.9,16.2,30.04,North,4,6.0,9.0,15,0.00,,,0.00,0,WeatherHawk,2013-01-22 02:53:00,
2013-01-21 19:56:00,64.8,16.0,30.04,North,7,7.0,9.0,15,0.00,,,0.00,0,WeatherHawk,2013-01-22 02:56:00,
2013-01-21 19:59:00,64.8,16.0,30.04,North,8,6.0,0.0,15,0.00,,,0.00,1,WeatherHawk,2013-01-22 02:59:00,
2013-01-21 20:01:00,64.8,16.0,30.04,North,5,8.0,8.0,15,0.00,,,0.00,0,WeatherHawk,2013-01-22 03:01:00,
2013-01-21 20:02:00,64.8,16.0,30.04,North,5,8.0,8.0,15,0.00,,,0.00,0,WeatherHawk,2013-01-22 03:02:00,
2013-01-21 20:05:00,64.8,16.0,30.04,North,7,6.0,7.0,15,0.00,,,0.00,0,WeatherHawk,2013-01-22 03:05:00,
2013-01-21 20:07:00,64.8,16.0,30.04,North,9,6.0,-999.0,15,0.00,,,0.00,1,WeatherHawk,2013-01-22 03:07:00,
2013-01-21 20:10:00,64.8,16.0,30.04,North,5,6.0,8.0,15,0.00,,,0.00,0,WeatherHawk,2013-01-22 03:10:00,
2013-01-21 20:12:00,64.6,15.9,30.04,North,6,7.0,-999.0,15,0.00,,,0.00,0,WeatherHawk,2013-01-22 03:12:00,
2013-01-21 20:13:00,64.8,14.5,30.04,North,9,7.0,8.0,14,0.00,,,0.00,0,WeatherHawk,2013-01-22 03:13:00,
2013-01-21 20:17:00,64.6,15.9,30.04,NNE,13,7.0,-999.0,15,0.00,,,0.00,0,WeatherHawk,2013-01-22 03:17:00,
2013-01-21 20:18:00,64.6,15.9,30.04,NNE,15,7.0,0.0,15,0.00,,,0.00,0,WeatherHawk,2013-01-22 03:18:00,
2013-01-21 20:20:00,64.4,15.8,30.04,NNE,16,7.0,8.0,15,0.00,,,0.00,0,WeatherHawk,2013-01-22 03:20:00,
2013-01-21 20:22:00,64.6,14.3,30.04,NNE,15,7.0,-999.0,14,0.00,,,0.00,0,WeatherHawk,2013-01-22 03:22:00,
2013-01-21 20:23:00,64.6,14.3,30.04,NNE,14,7.0,8.0,14,0.00,,,0.00,0,WeatherHawk,2013-01-22 03:23:00,
2013-01-21 20:24:00,64.8,14.5,30.04,NNE,15,6.0,8.0,14,0.00,,,0.00,0,WeatherHawk,2013-01-22 03:24:00,
2013-01-21 20:27:00,64.4,14.2,30.04,NNE,25,4.0,8.0,14,0.00,,,0.00,0,WeatherHawk,2013-01-22 03:27:00,
2013-01-21 20:31:00,63.7,15.2,30.04,NNE,17,5.0,8.0,15,0.00,,,0.00,0,WeatherHawk,2013-01-22 03:31:00,
2013-01-21 20:32:00,63.7,15.2,30.04,NNE,16,5.0,-999.0,15,0.00,,,0.00,0,WeatherHawk,2013-01-22 03:32:00,
2013-01-21 20:33:00,63.7,15.2,30.04,North,10,5.0,8.0,15,0.00,,,0.00,0,WeatherHawk,2013-01-22 03:33:00,
2013-01-21 20:37:00,63.9,13.8,30.04,North,9,6.0,8.0,14,0.00,,,0.00,0,WeatherHawk,2013-01-22 03:37:00,
2013-01-21 20:38:00,64.0,13.9,30.04,North,10,6.0,7.0,14,0.00,,,0.00,0,WeatherHawk,2013-01-22 03:38:00,
2013-01-21 20:40:00,64.0,13.9,30.04,North,10,6.0,7.0,14,0.00,,,0.00,0,WeatherHawk,2013-01-22 03:40:00,
2013-01-21 20:42:00,64.0,13.9,30.04,North,7,6.0,7.0,14,0.00,,,0.00,0,WeatherHawk,2013-01-22 03:42:00,
2013-01-21 20:45:00,64.0,13.9,30.04,North,4,6.0,7.0,14,0.00,,,0.00,0,WeatherHawk,2013-01-22 03:45:00,
2013-01-21 20:47:00,64.0,13.9,30.04,North,1,5.0,7.0,14,0.00,,,0.00,0,WeatherHawk,2013-01-22 03:47:00,
2013-01-21 20:48:00,63.9,15.3,30.04,North,358,5.0,7.0,15,0.00,,,0.00,1,WeatherHawk,2013-01-22 03:48:00,
2013-01-21 20:50:00,64.0,13.9,30.04,North,351,6.0,7.0,14,0.00,,,0.00,0,WeatherHawk,2013-01-22 03:50:00,
2013-01-21 20:51:00,64.0,13.9,30.04,North,351,6.0,7.0,14,0.00,,,0.00,0,WeatherHawk,2013-01-22 03:51:00,
2013-01-21 20:56:00,64.4,14.2,30.04,NNW,346,6.0,7.0,14,0.00,,,0.00,0,WeatherHawk,2013-01-22 03:56:00,
2013-01-21 20:57:00,64.4,14.2,30.04,NNW,346,6.0,7.0,14,0.00,,,0.00,0,WeatherHawk,2013-01-22 03:57:00,
2013-01-21 20:59:00,64.2,14.0,30.04,NNW,347,6.0,7.0,14,0.00,,,0.00,0,WeatherHawk,2013-01-22 03:59:00,
2013-01-21 21:02:00,64.0,13.9,30.04,NNW,342,6.0,7.0,14,0.00,,,0.00,0,WeatherHawk,2013-01-22 04:02:00,
2013-01-21 21:04:00,64.0,13.9,30.04,NNW,340,5.0,7.0,14,0.00,,,0.00,0,WeatherHawk,2013-01-22 04:04:00,
2013-01-21 21:06:00,63.9,13.8,30.04,NNW,337,6.0,7.0,14,0.00,,,0.00,0,WeatherHawk,2013-01-22 04:06:00,
2013-01-21 21:07:00,63.9,13.8,30.04,NNW,339,6.0,7.0,14,0.00,,,0.00,0,WeatherHawk,2013-01-22 04:07:00,
2013-01-21 21:12:00,63.7,15.2,30.04,NNW,333,4.0,6.0,15,0.00,,,0.00,1,WeatherHawk,2013-01-22 04:12:00,
2013-01-21 21:13:00,63.5,15.0,30.04,NNW,333,4.0,6.0,15,0.00,,,0.00,0,WeatherHawk,2013-01-22 04:13:00,
2013-01-21 21:15:00,63.3,14.9,30.04,NNW,336,4.0,6.0,15,0.00,,,0.00,0,WeatherHawk,2013-01-22 04:15:00,
2013-01-21 21:16:00,63.3,14.9,30.04,NNW,336,4.0,6.0,15,0.00,,,0.00,0,WeatherHawk,2013-01-22 04:16:00,
2013-01-21 21:17:00,63.1,14.7,30.04,NNW,338,4.0,-999.0,15,0.00,,,0.00,0,WeatherHawk,2013-01-22 04:17:00,
2013-01-21 21:18:00,63.1,14.7,30.04,NNW,339,4.0,6.0,15,0.00,,,0.00,0,WeatherHawk,2013-01-22 04:18:00,
2013-01-21 21:21:00,63.0,14.6,30.05,NNW,335,4.0,6.0,15,0.00,,,0.00,1,WeatherHawk,2013-01-22 04:21:00,
2013-01-21 21:23:00,63.0,14.6,30.05,NNW,334,4.0,6.0,15,0.00,,,0.00,0,WeatherHawk,2013-01-22 04:23:00,
2013-01-21 21:27:00,62.4,17.0,30.05,WNW,301,4.0,-999.0,17,0.00,,,0.00,0,WeatherHawk,2013-01-22 04:27:00,
2013-01-21 21:32:00,59.7,19.7,30.05,WNW,300,4.0,6.0,21,0.00,,,0.00,0,WeatherHawk,2013-01-22 04:32:00,
2013-01-21 21:33:00,59.4,18.3,30.05,WNW,296,4.0,6.0,20,0.00,,,0.00,1,WeatherHawk,2013-01-22 04:33:00,
2013-01-21 21:35:00,59.0,19.1,30.05,WNW,291,5.0,6.0,21,0.00,,,0.00,0,WeatherHawk,2013-01-22 04:35:00,
2013-01-21 21:37:00,58.8,19.0,30.05,WNW,301,4.0,6.0,21,0.00,,,0.00,0,WeatherHawk,2013-01-22 04:37:00,
2013-01-21 21:38:00,59.0,19.1,30.05,NW,311,4.0,6.0,21,0.00,,,0.00,0,WeatherHawk,2013-01-22 04:38:00,
2013-01-21 21:41:00,59.0,18.0,30.05,NW,325,4.0,6.0,20,0.00,,,0.00,0,WeatherHawk,2013-01-22 04:41:00,
2013-01-21 21:42:00,59.2,17.0,30.05,NNW,333,4.0,-999.0,19,0.00,,,0.00,0,WeatherHawk,2013-01-22 04:42:00,
2013-01-21 21:43:00,59.5,17.3,30.05,NNW,336,4.0,6.0,19,0.00,,,0.00,0,WeatherHawk,2013-01-22 04:43:00,
2013-01-21 21:47:00,60.3,16.6,30.05,NNW,345,4.0,5.0,18,0.00,,,0.00,0,WeatherHawk,2013-01-22 04:47:00,
2013-01-21 21:48:00,60.4,16.7,30.05,North,349,4.0,5.0,18,0.00,,,0.00,0,WeatherHawk,2013-01-22 04:48:00,
2013-01-21 21:49:00,60.4,16.7,30.05,North,353,4.0,5.0,18,0.00,,,0.00,0,WeatherHawk,2013-01-22 04:49:00,
2013-01-21 21:51:00,60.6,16.9,30.05,North,356,4.0,5.0,18,0.00,,,0.00,0,WeatherHawk,2013-01-22 04:51:00,
2013-01-21 21:54:00,60.8,17.0,30.06,NNW,338,4.0,5.0,18,0.00,,,0.00,0,WeatherHawk,2013-01-22 04:54:00,
2013-01-21 21:57:00,60.6,16.9,30.06,NW,319,4.0,5.0,18,0.00,,,0.00,0,WeatherHawk,2013-01-22 04:57:00,
2013-01-21 22:01:00,60.3,17.8,30.06,West,263,5.0,5.0,19,0.00,,,0.00,0,WeatherHawk,2013-01-22 05:01:00,
2013-01-21 22:02:00,60.3,17.8,30.06,West,263,5.0,-999.0,19,0.00,,,0.00,0,WeatherHawk,2013-01-22 05:02:00,
2013-01-21 22:05:00,59.0,16.8,30.07,WSW,252,5.0,5.0,19,0.00,,,0.00,0,WeatherHawk,2013-01-22 05:05:00,
2013-01-21 22:06:00,59.0,16.8,30.07,WSW,252,5.0,5.0,19,0.00,,,0.00,0,WeatherHawk,2013-01-22 05:06:00,
2013-01-21 22:07:00,59.0,16.8,30.07,WSW,252,5.0,5.0,19,0.00,,,0.00,0,WeatherHawk,2013-01-22 05:07:00,
2013-01-21 22:12:00,57.2,19.7,30.07,WSW,239,3.0,6.0,23,0.00,,,0.00,0,WeatherHawk,2013-01-22 05:12:00,
2013-01-21 22:16:00,57.4,16.7,30.07,WNW,283,2.0,6.0,20,0.00,,,0.00,0,WeatherHawk,2013-01-22 05:16:00,
2013-01-21 22:17:00,57.4,16.7,30.07,WNW,283,2.0,6.0,20,0.00,,,0.00,0,WeatherHawk,2013-01-22 05:17:00,
2013-01-21 22:19:00,57.4,20.9,30.07,South,185,1.0,5.0,24,0.00,,,0.00,0,WeatherHawk,2013-01-22 05:19:00,
2013-01-21 22:22:00,56.5,18.1,30.07,SW,228,1.0,5.0,22,0.00,,,0.00,0,WeatherHawk,2013-01-22 05:22:00,
2013-01-21 22:24:00,56.1,18.8,30.07,SW,214,2.0,5.0,23,0.00,,,0.00,0,WeatherHawk,2013-01-22 05:24:00,
2013-01-21 22:27:00,56.1,18.8,30.07,SW,229,2.0,-999.0,23,0.00,,,0.00,0,WeatherHawk,2013-01-22 05:27:00,
2013-01-21 22:28:00,55.9,19.7,30.07,SW,227,2.0,2.0,24,0.00,,,0.00,0,WeatherHawk,2013-01-22 05:28:00,
2013-01-21 22:32:00,56.3,15.8,30.07,West,260,3.0,3.0,20,0.00,,,0.00,0,WeatherHawk,2013-01-22 05:32:00,
2013-01-21 22:36:00,57.2,15.3,30.07,WNW,293,2.0,2.0,19,0.00,,,0.00,0,WeatherHawk,2013-01-22 05:36:00,
2013-01-21 22:37:00,57.2,15.3,30.07,WNW,293,2.0,2.0,19,0.00,,,0.00,0,WeatherHawk,2013-01-22 05:37:00,
2013-01-21 22:40:00,57.4,15.5,30.07,WNW,297,3.0,3.0,19,0.00,,,0.00,0,WeatherHawk,2013-01-22 05:40:00,
2013-01-21 22:41:00,57.4,14.2,30.07,WNW,287,3.0,3.0,18,0.00,,,0.00,0,WeatherHawk,2013-01-22 05:41:00,
2013-01-21 22:42:00,57.4,14.2,30.07,West,280,3.0,3.0,18,0.00,,,0.00,0,WeatherHawk,2013-01-22 05:42:00,
2013-01-21 22:46:00,57.7,14.5,30.07,West,271,5.0,5.0,18,0.00,,,0.00,0,WeatherHawk,2013-01-22 05:46:00,
2013-01-21 22:47:00,57.7,14.5,30.07,West,271,5.0,-999.0,18,0.00,,,0.00,0,WeatherHawk,2013-01-22 05:47:00,
2013-01-21 22:50:00,57.7,15.8,30.07,WSW,253,6.0,6.0,19,0.00,,,0.00,0,WeatherHawk,2013-01-22 05:50:00,
2013-01-21 22:51:00,57.7,15.8,30.07,WSW,253,5.0,5.0,19,0.00,,,0.00,0,WeatherHawk,2013-01-22 05:51:00,
2013-01-21 22:52:00,57.7,15.8,30.07,WSW,253,5.0,5.0,19,0.00,,,0.00,0,WeatherHawk,2013-01-22 05:52:00,
2013-01-21 22:56:00,57.2,15.3,30.07,WSW,244,4.0,5.0,19,0.00,,,0.00,0,WeatherHawk,2013-01-22 05:56:00,
2013-01-21 22:57:00,57.2,15.3,30.07,WSW,244,4.0,5.0,19,0.00,,,0.00,0,WeatherHawk,2013-01-22 05:57:00,
2013-01-21 22:58:00,57.0,15.2,30.07,WSW,249,4.0,6.0,19,0.00,,,0.00,0,WeatherHawk,2013-01-22 05:58:00,
2013-01-21 23:00:00,57.0,15.2,30.07,WSW,252,3.0,6.0,19,0.00,,,0.00,0,WeatherHawk,2013-01-22 06:00:00,
2013-01-21 23:02:00,56.8,15.0,30.07,WSW,252,3.0,6.0,19,0.00,,,0.00,0,WeatherHawk,2013-01-22 06:02:00,
2013-01-21 23:06:00,56.5,15.9,30.07,SSW,203,1.0,6.0,20,0.00,,,0.00,0,WeatherHawk,2013-01-22 06:06:00,
2013-01-21 23:09:00,55.2,16.0,30.07,SSW,201,1.0,4.0,21,0.00,,,0.00,0,WeatherHawk,2013-01-22 06:09:00,
2013-01-21 23:10:00,55.0,15.8,30.08,SW,222,1.0,4.0,21,0.00,,,0.00,0,WeatherHawk,2013-01-22 06:10:00,
2013-01-21 23:12:00,54.9,15.7,30.08,West,281,1.0,4.0,21,0.00,,,0.00,0,WeatherHawk,2013-01-22 06:12:00,
2013-01-21 23:14:00,54.7,15.5,30.08,West,281,3.0,4.0,21,0.00,,,0.00,0,WeatherHawk,2013-01-22 06:14:00,
2013-01-21 23:16:00,54.9,15.7,30.08,NW,323,2.0,4.0,21,0.00,,,0.00,0,WeatherHawk,2013-01-22 06:16:00,
2013-01-21 23:20:00,55.6,15.2,30.08,NW,320,3.0,3.0,20,0.00,,,0.00,0,WeatherHawk,2013-01-22 06:20:00,
2013-01-21 23:22:00,55.6,15.2,30.08,WNW,300,2.0,-999.0,20,0.00,,,0.00,0,WeatherHawk,2013-01-22 06:22:00,
2013-01-21 23:24:00,55.9,14.3,30.08,WNW,291,3.0,3.0,19,0.00,,,0.00,0,WeatherHawk,2013-01-22 06:24:00,
2013-01-21 23:26:00,56.1,15.6,30.08,West,276,4.0,4.0,20,0.00,,,0.00,0,WeatherHawk,2013-01-22 06:26:00,
2013-01-21 23:28:00,56.3,15.8,30.08,West,278,4.0,0.0,20,0.00,,,0.00,0,WeatherHawk,2013-01-22 06:28:00,
2013-01-21 23:30:00,56.1,15.6,30.08,West,271,3.0,5.0,20,0.00,,,0.00,0,WeatherHawk,2013-01-22 06:30:00,
2013-01-21 23:32:00,56.1,15.6,30.08,West,271,3.0,-999.0,20,0.00,,,0.00,0,WeatherHawk,2013-01-22 06:32:00,
2013-01-21 23:33:00,56.1,14.4,30.08,WNW,285,3.0,5.0,19,0.00,,,0.00,0,WeatherHawk,2013-01-22 06:33:00,
2013-01-21 23:34:00,56.1,14.4,30.08,WNW,294,3.0,5.0,19,0.00,,,0.00,0,WeatherHawk,2013-01-22 06:34:00,
2013-01-21 23:35:00,56.3,14.6,30.08,WNW,299,4.0,5.0,19,0.00,,,0.00,0,WeatherHawk,2013-01-22 06:35:00,
2013-01-21 23:40:00,56.5,13.5,30.08,NW,316,4.0,4.0,18,0.00,,,0.00,0,WeatherHawk,2013-01-22 06:40:00,
2013-01-21 23:43:00,57.0,12.7,30.08,NNW,340,5.0,5.0,17,0.00,,,0.00,0,WeatherHawk,2013-01-22 06:43:00,
2013-01-21 23:44:00,57.2,12.8,30.08,NNW,340,6.0,6.0,17,0.00,,,0.00,0,WeatherHawk,2013-01-22 06:44:00,
2013-01-21 23:45:00,57.2,12.8,30.07,NNW,336,5.0,5.0,17,0.00,,,0.00,0,WeatherHawk,2013-01-22 06:45:00,
2013-01-21 23:49:00,57.4,11.6,30.07,NNW,338,6.0,6.0,16,0.00,,,0.00,0,WeatherHawk,2013-01-22 06:49:00,
2013-01-21 23:50:00,57.6,11.7,30.08,NNW,341,6.0,6.0,16,0.00,,,0.00,1,WeatherHawk,2013-01-22 06:50:00,
2013-01-21 23:52:00,57.6,11.7,30.08,NNW,342,6.0,6.0,16,0.00,,,0.00,0,WeatherHawk,2013-01-22 06:52:00,
2013-01-21 23:56:00,57.6,11.7,30.08,NNW,337,6.0,6.0,16,0.00,,,0.00,0,WeatherHawk,2013-01-22 06:56:00,
2013-01-21 23:57:00,57.6,11.7,30.08,NNW,337,6.0,6.0,16,0.00,,,0.00,0,WeatherHawk,2013-01-22 06:57:00,
2013-01-21 23:58:00,57.6,11.7,30.08,NNW,338,6.0,6.0,16,0.00,,,0.00,0,WeatherHawk,2013-01-22 06:58:00,